Biedriem

VSK Noskrien twitter
VSK Noskrien Facebook profils

Polar M400 HR
Ūdensizturīgs GPS pulsometrs ikdienas treniņiem un sportiskiem sasniegumiem.
EUR 189.00


Noskrietais


Pēdējās nedēļas skrējieni grupai
Datums Notikums Skrējējs Km Laiks Pulss min/km km/h Apavi
24/06/17 Skrējiens Zigis 19.67 1:39:45 05:04 11.83
24/06/17 Skrējiens juris.z 3.88 28:22 07:18 8.21 ir
24/06/17 Jāņu dienas skrējiens (23:00) KarlisBumans 5.00 30:00 135 06:00 10.00 ir
24/06/17 Skrējiens Džanaka das 0.26 01:32 05:53 10.17 ir
24/06/17 Skrējiens raitisbe 4.15 22:32 05:25 11.05 ir
24/06/17 Skrējiens raitisbe 9.63 50:58 05:17 11.34 ir
24/06/17 Skrējiens karlos 5.14 28:18 05:30 10.90 ir
24/06/17 Skrējiens edžus11 19.71 1:49:12 05:32 10.83 ir
24/06/17 Skrējiens Nix65 11.22 59:20 05:17 11.35 ir
24/06/17 Skrējiens SandisC 6.34 36:15 05:43 10.49 ir
24/06/17 Skrējiens noskrēju! 8.76 49:11 05:36 10.69 ir
24/06/17 Skrējiens noskrēju! 8.71 41:33 04:46 12.58 ir
24/06/17 Skrējiens des 2.15 13:09 06:06 9.81 ir
24/06/17 Skrējiens Martinits1 9.58 48:03 05:00 11.96 ir
24/06/17 Skrējiens MarijaV 10.78 58:37 05:26 11.03 ir
24/06/17 Skrējiens vaicis 13.52 1:32:54 06:52 8.73
24/06/17 Skrējiens Andis87 17.01 1:25:42 05:02 11.91 ir
24/06/17 Skrējiens Bembelāts 10.63 1:00:38 05:42 10.52
24/06/17 Skrējiens xorix 7.01 38:46 05:31 10.85 ir
24/06/17 Skrējiens Azveja 10.25 1:11:18 06:57 8.63 ir
24/06/17 Skrējiens RiKa 30.16 2:20:49 04:40 12.85
24/06/17 Skrējiens guntars.bumans 5.01 30:38 06:06 9.81
24/06/17 Skrējiens edža 8.75 47:42 05:27 11.01 ir
24/06/17 Skrējiens aicis1 23.19 1:43:45 04:28 13.41 ir
24/06/17 Skrējiens KarīnaK 14.17 1:26:40 06:06 9.81 ir
24/06/17 Skrējiens uzzy 4.65 23:14 04:59 12.01 ir
24/06/17 Venēcija, baigi karsti zandarts 13.39 1:24:06 150 06:16 9.55 ir
24/06/17 10km Z3 Māris91 10.11 53:22 144 05:16 11.37 ir
24/06/17 Skrējiens annele 5.18 31:23 06:03 9.90 ir
24/06/17 Skrējiens jans.s 2.38 13:29 05:39 10.59 ir
24/06/17 Skrējiens jans.s 4.13 23:09 05:36 10.70 ir
24/06/17 Skrējiens Andrex 11.68 1:06:04 05:39 10.61
24/06/17 kārtējā tizlošanās pa Kirkham kalnaini Ugisdatavs 6.00 32:40 119 05:26 11.02 ir
24/06/17 Biķernieki Cassandra 15.00 1:27:54 05:51 10.24 ir
24/06/17 Vīrusiņa sabiedrībā riebīgais 3.30 18:34 05:37 10.66 ir
24/06/17 R maffija 7.00 43:11 06:10 9.73 ir
24/06/17 Zciems AndrisJ 14.17 1:18:27 05:32 10.84 ir
24/06/17 Jāņu dienā kā tad tā, nevar paskriet it ne kā. Ginc 4.60 29:42 140 06:27 9.29 ir
24/06/17 18:00 , +16C kofeins 20.00 2:17:00 06:51 8.76
24/06/17 V-celiņi, B-trase (int) Rasels 17.50 1:32:50 130 05:18 11.31 ir
24/06/17 (86.0) taciņas Kampars 5.60 27:22 04:53 12.28
24/06/17 (86.0) parciņā Kampars 3.60 19:11 05:19 11.26
24/06/17 Cortina  Trail zirnis 47.88 8:41:07 10:53 5.51 ir
24/06/17 pēcpaģiru riksīts villijs78 8.88 49:40 144 05:35 10.73 ir
24/06/17 Uzskrēju oldys34 13.01 1:23:21 136 06:24 9.37
24/06/17 super brick neomax 4.01 23:41 141 05:54 10.16 ir
24/06/17 Mājup Rupucis_ 13.02 1:07:06 05:09 11.64 ir
24/06/17 Skrējiens Kru 10.17 50:00 04:54 12.20 ir
24/06/17 Pēc Līgo Skrējiens runner-arrnis 6.00 26:31 142 04:25 13.58 ir
24/06/17 Zāģēju pa Jāņiem Lielkuilis 14.86 1:18:53 05:18 11.30 ir
24/06/17 skrējiens 06/6 sturitis 6.04 34:02 05:38 10.65 ir
24/06/17 Ciele Kuks 13.40 1:08:00 153 05:04 11.82 ir
24/06/17 tr/v munkirs 8.65 49:02 133 05:40 10.58 ir
24/06/17 Jddjdj kalvicc94 9.90 50:00 05:03 11.88 ir
24/06/17 Skrējiens 10.00 47:05 04:42 12.74 ir
24/06/17 Sestdienas SFS - iesildīšanās un atsildīšanās noris 5.88 30:01 05:06 11.75 ir
24/06/17 Skrējiens lellde 4.18 21:50 05:13 11.49 ir
24/06/17 18:03 Ganību dambis-K.Valdemāra iela(+16 un smidzina lietus) GačusSkrunda 9.10 47:13 05:11 11.56 ir
24/06/17 pludmale teicamnieks 8.00 ir
24/06/17 run JānisV 15.15 1:06:33 147 04:23 13.66 ir
24/06/17 stadions lynx21 14.00 1:33:25 06:40 8.99
24/06/17 no Vitrupes līdz Ķurmragam gar jūru Dina 9.60 1:15:10 140 07:49 7.66 ir
24/06/17 Pufaikciems, kamēr nelīst. Hiēna 2.09 13:49 06:36 9.08 ir
24/06/17 Plienciema intervāli tomick 12.10 1:01:02 151 05:02 11.90 ir
24/06/17 13.1M tempo run (PB) cumulus 21.11 1:32:37 162 04:23 13.68 ir
24/06/17 Vitrupe- Ķurmrags. Baso kāju skrējiens. kalnu_žubīte 9.72 1:15:40 154 07:47 7.71
24/06/17 Pēc Līgo VilnisV 7.08 48:29 131 06:50 8.76 ir
24/06/17 Pār gadskārtu Jānīts nāca Jay-P 6.17 38:00 127 06:09 9.74 ir
24/06/17 Dienas pikols 10.00 1:00:00 06:00 10.00 ir
24/06/17 Skrejiens VP13 25.11 2:06:58 05:03 11.87 ir
24/06/17 Fun DzeniferaZ 2.00 20:00 10:00 6.00 ir
24/06/17 Stadions Chuncha 10.00 59:18 05:55 10.12 ir
24/06/17 Gaujienas pagasta ziemeļos Pičuks Dz 5.50 36:07 06:34 9.14
24/06/17 Skrējiens ATOM 11.00 1:11:51 160 06:31 9.19 ir
24/06/17 Jāņu dienas basais: 4i gadiņi :) stjopachio 5.29 25:16 117 04:46 12.56 ir
24/06/17 60 +1 ļoti viegli skrējās! arturs.locmelis 10.88 55:29 130 05:05 11.77 ir
24/06/17 Pie Kaupēna Dzo 16.70 1:24:05 05:02 11.92 ir
24/06/17 Kas Jāņu rītā pa baso skrien, tam veselība visu gadu! anciite 1.48 09:43 126 06:33 9.14 ir
24/06/17 Jāņu rītā pēc puķēm šosejas malā, :D anciite 4.55 27:59 132 06:09 9.76 ir
24/06/17 XTERRA Trail Run Tisvilde EduardsRu 10.00 1:04:17 06:25 9.33 ir
24/06/17 Tisvilde takas, smiltis, pelde jūrā EduardsRu 0.93 06:06 06:33 9.15 ir
24/06/17 Jāņu diena eddyboyz 10.28 1:01:46 50 06:00 9.99 ir
24/06/17 Skrējiens pa baso MartinsF 0.59 06:39 11:16 5.32 ir
24/06/17 Skrējiens pa baso MartinsF 3.14 27:46 08:50 6.79 ir
24/06/17 Turaida einmed 14.53 1:46:11 121 07:18 8.21 ir
24/06/17 Pēc otrās līgošanas - veloceliņš a-anna 11.30 1:06:05 05:50 10.26 ir
24/06/17 3.posms, Arkādijas parks vnkIndra 5.00 24:21 04:52 12.32 ir
24/06/17 ekskursija līdz senkapiem neirula 7.54 54:46 147 07:15 8.26 ir
24/06/17 Jāņu rītā Ginchaa 11.00 1:17:20 137 07:01 8.53
24/06/17 Skrējiens mtiger 10.10 52:05 140 05:09 11.64 ir
24/06/17 Upe Aivars 13.82 1:50:25 07:59 7.51 ir
24/06/17 pa trasi andris13 10.90 52:10 04:47 12.54 ir
24/06/17 Jāņu diena. Maikijs 16.60 1:48:05 06:30 9.22 ir
24/06/17 NRR 18 lerychv 5.74 34:36 108 06:01 9.95 ir
24/06/17 Skrējiens Alarion 3.39 30:09 132 08:53 6.75 ir
24/06/17 Perfekts garais Jāņu rītā DK86 22.00 1:57:42 140 05:21 11.21
24/06/17 m js79 4.60 ir
24/06/17 Līgo rīta skrējiens-Līkais mežs un atpakaļ uz mājām.Satiku Luffy pēc pus gada. Gīča 15.00 1:20:46 155 05:23 11.14
24/06/17 skrējiens Oldington 4.93 51:40 122 10:29 5.72
24/06/17 Pirms peldes seismologs 7.39 41:31 125 05:37 10.68 ir
24/06/17 par Jāni:) purene_vulgaris (parasta) 11.20 1:20:53 141 07:13 8.31 ir
24/06/17 Morning at Pärnu beach personaskods 9.29 1:07:04 136 07:13 8.31 ir
24/06/17 Skrējiens Tima 3.00 15:42 05:14 11.46 ir
24/06/17 Skrējiens. garaissss 10.45 59:26 135 05:41 10.55 ir
24/06/17 Skrējiens sīdžejs 4.59 26:27 05:45 10.41
24/06/17 Running Aivysuperman 10.20 1:01:12 117 06:00 10.00 ir
23/06/17 Skrējiens Zigis 11.22 1:00:33 05:23 11.12
23/06/17 48.F1 aivars33 6.00 31:20 05:13 11.49 ir
23/06/17 Skrējiens Elhana 10.71 1:18:39 07:20 8.17 ir
23/06/17 Skrējiens MarijaV 15.21 1:25:54 05:38 10.62 ir
23/06/17 Skrējiens inga.brusova 10.04 1:06:53 06:39 9.01 ir
23/06/17 Skrējiens uzzy 1.07 06:15 05:50 10.27 ir
23/06/17 Rīts AndrisJ 5.16 54:40 10:35 5.66 ir
23/06/17 Brīvdienu skrējiens RobertsR 12.37 55:48 152 04:30 13.30 ir
23/06/17 Jānis un Jānītis bredato 12.00 52:58 04:24 13.59 ir
23/06/17 run JānisV 6.06 30:30 133 05:01 11.92 ir
23/06/17 Īsākās nakts skrējiens Sanča_Ro 22.60 2:36:00 06:54 8.69 ir
23/06/17 Berlīnes rīts stjopachio 5.09 25:38 127 05:02 11.91 ir
23/06/17 60 +3 arturs.locmelis 8.75 47:45 122 05:27 10.99 ir
23/06/17 Jānis un Jānītid ozzy 12.60 53:20 164 04:13 14.18 ir
23/06/17 No darba topinjs 8.09 43:02 05:19 11.28 ir
23/06/17 iesildīšanās pirms trenažieriem Ugisdatavs 2.00 12:00 06:00 10.00 ir
23/06/17 ''Skrien Jānis un Jānītis Cēsīs'' LEICHA 12.46 55:21 135 04:26 13.51
23/06/17 vienpadsminieks, zonā - 7 minutes (12 %) Aleks Kor 11.18 59:57 149 05:21 11.19 ir
23/06/17 pujeņu laiks purene_vulgaris (parasta) 7.71 54:14 138 07:02 8.53 ir
23/06/17 Skrējiens karlos 4.18 24:26 05:50 10.26 ir
23/06/17 27 DaceDace 10.00 1:00:00 06:00 10.00
23/06/17 Miðnæturhlaup Suzuki / Suzuki Midnight Sun Run izbadējies 21.20 1:30:15 176 04:15 14.09 ir
23/06/17 Skrējiens Anncce 0.46 03:17 07:08 8.41
23/06/17 Jānis un jānitis Anncce 6.47 39:17 06:04 9.88
23/06/17 Svētku skrējiens +18 Z4/5 ar sauli Aldis B 7.74 48:27 157 06:15 9.58 ir
23/06/17 23.00.Pa pilsētu MAKRO 16.00 1:14:42 04:40 12.85 ir
23/06/17 Skrējiens johaidi 8.27 47:00 05:40 10.56 ir
23/06/17 Skrējiens raraitis 13.28 1:22:29 06:12 9.66 ir
23/06/17 Skrējiens CaunietisLV 23.22 2:06:57 05:28 10.97
23/06/17 Skrējiens Kļavu Pēteris 15.08 1:22:39 05:28 10.95 ir
23/06/17 Skrējiens jaudzin 6.88 43:55 06:22 9.40
23/06/17 Skrējiens jaudzin 12.24 1:06:23 05:25 11.06
23/06/17 Skrējiens KarīnaK 14.14 1:27:21 06:10 9.71 ir
23/06/17 Skrējiens Džanaka das 23.05 2:17:49 05:58 10.04 ir
23/06/17 Skrējiens Džanaka das 0.41 03:55 09:33 6.28 ir
23/06/17 Skrējiens jans.s 6.70 40:10 05:59 10.01 ir
23/06/17 Skrējiens Bembelāts 4.97 29:52 06:00 9.98
23/06/17 Skrējiens SintijaC 6.13 45:46 07:27 8.04
23/06/17 Skrējiens RaitisR 8.13 40:46 05:00 11.97 ir
23/06/17 Skrējiens AgrisN 9.71 1:00:01 06:10 9.71
23/06/17 Skrējiens otto 11.67 59:01 05:03 11.86
23/06/17 Skrējiens chunka 17.72 1:40:46 05:41 10.55
23/06/17 Skrējiens noskrēju! 3.80 17:46 04:40 12.83 ir
23/06/17 Skrējiens noskrēju! 1.81 08:06 04:28 13.41 ir
23/06/17 Skrējiens maziinais 2.42 17:39 07:17 8.23 ir
23/06/17 Skrējiens maziinais 12.48 58:52 04:43 12.72 ir
23/06/17 Skrējiens ROY 21.21 1:47:35 05:04 11.83
23/06/17 Skrējiens Lapsene 7.12 41:25 05:49 10.31 ir
23/06/17 Skrējiens xorix 14.22 1:00:56 04:17 14.00 ir
23/06/17 Skrējiens migors 10.00 1:05:18 06:31 9.19
23/06/17 Skrējiens RiKa 8.13 43:35 05:21 11.19
23/06/17 Skrējiens RiKa 8.12 43:02 05:17 11.32
23/06/17 Skrējiens RiKa 8.16 43:01 05:16 11.38
23/06/17 Skrējiens agnijs 12.30 57:45 04:41 12.78
23/06/17 Skrējiens Piiraadzinjsh 23.00 2:15:49 05:54 10.16
23/06/17 Skrējiens Stalte 14.21 1:22:30 05:48 10.33 ir
23/06/17 Skrējiens Daigucis 5.33 36:56 06:55 8.66 ir
23/06/17 Venēcija,agrs rīts, bet sutīgs un saule jau karsē pēc vella zandarts 13.51 1:25:40 156 06:20 9.46 ir
23/06/17 Venēcija,pa baso pirmo reizi šogad, +33 grādos, saule zandarts 5.35 34:13 157 06:23 9.38 ir
23/06/17 Skrējiens guntars.bumans 5.10 25:17 04:57 12.10
23/06/17 Rītarosme  Nix65 13.07 1:10:26 115 05:23 11.13 ir
23/06/17 Skrējiens des 9.57 46:11 04:49 12.43 ir
23/06/17 Skrējiens des 11.51 1:21:51 07:06 8.44 ir
23/06/17 Skrējiens PaulEdgecomb 12.16 1:11:29 05:52 10.21
23/06/17 Skrējiens agnesse75 8.96 1:02:24 06:57 8.62
23/06/17 Skrējiens AiZu 6.70 31:20 04:40 12.83 ir
23/06/17 Skrējiens ricardsbalcis 12.01 1:30:58 07:34 7.92 ir
23/06/17 Skrējiens andronkuls 3.17 14:53 04:41 12.78 ir
23/06/17 Skrējiens sīdžejs 6.47 39:48 06:09 9.75
23/06/17 Skrējiens LindeM 10.22 52:16 05:06 11.73 ir
23/06/17 Skrējiens eurosaj 14.44 1:28:19 06:06 9.81 ir
23/06/17 Skrējiens didzzzons 15.01 1:06:33 04:26 13.53
23/06/17 Skrējiens gudeens 0.91 06:01 06:36 9.07
23/06/17 Skrējiens gudeens 0.52 03:58 07:37 7.87
23/06/17 Skrējiens gudeens 0.49 05:56 12:06 4.96
23/06/17 Skrējiens gudeens 6.42 24:40 03:50 15.62
23/06/17 Skrējiens gudeens 1.01 24:48 24:33 2.44
23/06/17 Līgo. Uldzha 11.63 1:21:05 06:58 8.61 ir
23/06/17 Piektdienas mierīgais pirms Līgo noris 10.02 50:05 141 04:59 12.00 ir
23/06/17 skrējiens 06/5 Magnēts 36.kārta sturitis 8.19 1:03:52 07:47 7.69 ir
23/06/17 Mazirbe- Ģipka engiS 43.10 6:19:40 08:48 6.81
23/06/17 Skrējiens borga 17.43 1:32:45 164 05:19 11.28 ir
23/06/17 ligo skrējiens normundiņš 9.93 1:13:05 145 07:21 8.15 ir
23/06/17 Berlīne anciite 3.09 21:55 07:05 8.46 ir
23/06/17 Skrējiens "Jānis un Jānītis" 2017 Cēsīs Jolis 12.29 54:04 04:23 13.64
23/06/17 12:06, Izmeegjinaaju Ventspils maratona kreklu. Dziņa 24.00 2:34:34 152 06:26 9.32 ir
23/06/17 Treniņš vieglais 2 Uldiss 2.71 24:00 08:51 6.78 ir
23/06/17 Treniņš vieglais Uldiss 3.80 38:07 10:01 5.98 ir
23/06/17 tipu tapu GintsK 13.18 1:20:40 06:07 9.80 ir
23/06/17 Jānis un Jānītis 2017 Jānis_v 12.30 58:50 149 04:46 12.54 ir
23/06/17 Līgatnes taciņas Guna 6.82 47:38 06:59 8.59 ir
23/06/17 Skrējiens mtiger 14.35 1:15:55 05:17 11.34 ir
23/06/17 šašliki smaržo neirula 4.41 36:32 137 08:17 7.24 ir
23/06/17 Rimi-otto Ģirtiņš 5.50 30:24 160 05:31 10.86 ir
23/06/17 Līīgo, Līgo! Sauļuks 15.05 1:24:14 05:35 10.72 ir
23/06/17 11.40 km zvaigzne 11.40 1:06:00 05:47 10.36 ir
23/06/17 Skrējiens guntisb 12.00 1:06:01 05:30 10.91 ir
23/06/17 Dārzciema tuvumā Nigļu virzienā Pičuks Dz 4.20 27:19 06:30 9.23
23/06/17 paskrien 0:30 h triatlons GintsB 6.16 28:11 144 04:34 13.11 ir
23/06/17 Vēl - pēc vakardienas sarunas ar neskrējēju ;) a-anna 1.34 06:39 04:57 12.09 ir
23/06/17 pirms līgošanas Diddi 6.53 42:00 06:25 9.33 ir
23/06/17 Saullēkta aplis Ina 2.19 16:35 141 07:34 7.92 ir
23/06/17 13.1M cumulus 21.10 1:44:33 149 04:57 12.11 ir
23/06/17 No saulrieta līdz saullēktam Ina 11.24 1:27:29 140 07:46 7.71 ir
23/06/17 Ainavu avots aicis 15.00 1:15:04 05:00 11.99 ir
23/06/17 Skrējiens 10.00 47:13 04:43 12.71 ir
23/06/17 līgo Krustnagliņa 9.02 57:00 160 06:19 9.49 ir
23/06/17 Skrējiens "Jānis-Jānītis 2017" GačusSkrunda 6.40 24:11 03:46 15.88 ir
23/06/17 10:28 Iesild./atsild.Cēsīs(+18) GačusSkrunda 3.30 18:49 05:42 10.52 ir
23/06/17 Lēnais no saviem laukiem + VFS DK86 4.21 21:39 141 05:08 11.67
23/06/17 Skrējiens anup 6.75 43:02 154 06:22 9.41 ir
23/06/17 Vecāķos, baskāju. Inzy 11.02 1:14:04 06:43 8.93
23/06/17 Skrējiens lellde 1.38 07:09 05:10 11.58 ir
23/06/17 Skrējiens Jānis Jānītis lellde 12.40 52:04 04:11 14.29 ir
23/06/17 Skrējiens runner-arrnis 10.00 42:58 148 04:17 13.96 ir
23/06/17 Pēc pirmās līgošanas :) a-anna 5.70 33:48 05:55 10.12 ir
23/06/17 Udus kalvicc94 5.00 23:30 04:42 12.77 ir
23/06/17 Duduud kalvicc94 15.00 59:52 03:59 15.03 ir
23/06/17 Jaunas, smukas kediņas, jāpaskrien pirms aliņa. Ginc 2.27 13:10 05:48 10.34 ir
23/06/17 Skrējiens "Jānis, Jānītis" Jay-P 12.25 58:05 158 04:44 12.65 ir
23/06/17 20' + Drill + 5x100 + 5 @ 4:20 + 15 rubernmardom 12.59 1:00:00 142 04:45 12.59 ir
23/06/17 Līgo līgo skrējiens LaimaZ 10.64 1:05:08 06:07 9.80 ir
23/06/17 Pa dienu krizzak 8.00 39:28 04:56 12.16 ir
23/06/17 Lai nopelnītu alu, sieru, ir jāpaskrien, lai sāktos diena. Ginc 7.00 43:34 06:13 9.64 ir
23/06/17 Pa Pāvilostu Duuu-da 10.60 1:04:29 06:05 9.86 ir
23/06/17 Skrējiens Kru 12.40 1:00:49 04:54 12.23 ir
23/06/17 Preiļi andris13 5.00 19:36 03:55 15.31 ir
23/06/17 Pa Šmerli un Biķernieku mežu. Pa ilgākiem laikiem skrēju ilgak par stundu ansiso 12.00 ir
23/06/17 INS 2017 Ugis 27.04 2:58:17 144 06:35 9.10 ir
23/06/17 Skrējiens Gunjux 5.23 36:16 06:56 8.65 ir
23/06/17 Jānis un Jānītis. rotācijukaraliene 2.34 10:44 04:35 13.08 ir
23/06/17 Uz darbu topinjs 3.61 18:35 05:08 11.66 ir
23/06/17 Jānis un Jānītis. laacis1981 12.34 54:08 04:23 13.68 ir
23/06/17 lēnām, maz, ar jūrniekiem un bērnu edGars 7.91 1:04:16 127 08:07 7.38 ir
23/06/17 10.00.Pa mežu + lecieni un fiziskie MAKRO 15.00 1:10:52 04:43 12.70 ir
23/06/17 Brīvdiena! Lote 7.26 42:55 05:54 10.15 ir
23/06/17 Basām pa Rīgas parkiem einmed 19.13 2:03:27 123 06:27 9.30 ir
23/06/17 Skrējiens Dubultaģente 11.64 1:23:47 151 07:11 8.34 ir
23/06/17 Līgo pusīte Rozens 21.00 1:51:47 148 05:19 11.27
23/06/17 rīta rosme ErvinsK 3.29 23:47 07:13 8.30 ir
23/06/17 Skrējiens Zix 3.18 18:30 05:49 10.31 ir
23/06/17 87. Didzis 12.37 1:21:53 06:37 9.06
23/06/17 Ekkeberga Ewiaa 5.38 31:02 05:46 10.40 ir
23/06/17 Uz Berģiem DLK 11.38 1:02:21 05:28 10.95 ir
23/06/17 Cortina Sky Race zirnis 18.80 2:57:03 09:25 6.37 ir
23/06/17 Jānis -Jānītis Cēsīs MK70 12.31 1:15:22 06:07 9.80 ir
23/06/17 Upe ar Elīnu un Krišjāni (94,0) Aivars 19.00 2:09:09 06:47 8.83 ir
23/06/17 Līdz Kleistu mežam. +18, saula Līgo dienā bowskis 14.00 1:25:00 06:04 9.88 ir
23/06/17 Skrējiens eziits 5.18 35:01 134 06:45 8.88 ir
23/06/17 Skrējiens Shuma 15.40 1:28:37 144 05:45 10.43 ir
23/06/17 Skrējiens Evija Miglane 20.15 2:14:48 126 06:41 8.97 ir
23/06/17 Biķernieki villijs78 31.62 3:11:34 148 06:03 9.90 ir
23/06/17 Skrējiens Lauris 9.23 1:07:46 130 07:20 8.17 ir
23/06/17 5. Īsākās nakts skrējiens “No saulrieta līdz saullēktam” Antruks 2.55 16:42 06:32 9.16
23/06/17 5. Īsākās nakts skrējiens “No saulrieta līdz saullēktam” Antruks 4.56 26:29 05:48 10.33
23/06/17 Līgo rīta skrējiens Ginchaa 16.05 1:54:00 135 07:06 8.45
23/06/17 Rīta skrējiens riebīgais 11.14 1:04:49 05:49 10.31 ir
23/06/17 Līgo rīta skrējiens ar suni KarlisBumans 5.00 29:35 05:55 10.14 ir
23/06/17 Rīta skrējiens vitaminka D 8.50 39:15 137 04:37 12.99 ir
23/06/17 Daudz laimes dzimšanas dienā jeb Īsākās nakts skrējiens SelfijuPavēlniece 22.46 2:40:21 148 07:08 8.40 ir
23/06/17 NRR 17 lerychv 7.88 47:09 112 05:59 10.03 ir
23/06/17 #131. JurBer 13.26 1:47:52 131 08:08 7.38 ir
23/06/17 Līgo diena Maikijs 15.20 1:36:28 06:20 9.45 ir
23/06/17 run Argons 6.50 31:31 04:50 12.37 ir
23/06/17 rīta pikols 10.00 1:00:00 06:00 10.00 ir
23/06/17 #42 uz 5km chechens 4.16 30:02 163 07:13 8.31
23/06/17 76 - 5. Īsākās nakts skrējiens zusurs 22.71 2:19:19 06:08 9.78 ir
23/06/17 sarkanda a-kodejs 9.75 51:00 05:13 11.47 ir
23/06/17 Īsais lēnais Alarion 3.04 30:08 125 09:54 6.05 ir
23/06/17 Īsākās nakts skrējiens / arSievu#026 oldys34 42.27 4:03:20 161 05:45 10.42
23/06/17 Līgo! Līgo! Līgo! jeerika 10.24 59:55 05:51 10.25
23/06/17 m js79 10.00 58:44 121 05:52 10.22 ir
23/06/17 Viegls atjaunošanās skrējiens James87 11.50 52:58 141 04:36 13.03 ir
23/06/17 Skrējiens Chuncha 12.00 1:13:25 06:07 9.81 ir
23/06/17 Izskrien Rīgu 3. Posms Arkādijas Parks Māris91 4.78 18:55 179 03:57 15.16 ir
23/06/17 Iesildamies Izskrien Rīgu 3. Posmam Māris91 1.98 12:23 133 06:15 9.59 ir
23/06/17 Atsākt vetrasputns 17.29 2:00:01 143 06:56 8.64
23/06/17 Līgo rīts EvijaK 5.09 35:09 06:54 8.69
23/06/17 Skrējiens Sinta1 8.73 47:33 05:26 11.02 ir
23/06/17 Skrējiens Stupinss 12.14 56:10 154 04:37 12.97 ir
23/06/17 Skrējiens sominens 3.21 20:50 06:29 9.24 ir
23/06/17 Skrējiens Andis87 10.01 54:29 05:26 11.02 ir
23/06/17 Skrējiens experc 12.54 1:20:06 06:23 9.39 ir
23/06/17 Skrējiens Mairita 4.93 30:54 06:16 9.57
23/06/17 Skrējiens mriden 7.87 44:12 05:36 10.68
23/06/17 Skrējiens Martinits1 10.42 53:46 05:09 11.63 ir
23/06/17 Brīvskrējiens pludmalē seismologs 9.43 53:31 05:40 10.57 ir
23/06/17 Skrējiens +16 C InTi68 9.10 56:26 149 06:12 9.68 ir
23/06/17 Skrējiens WhatsNew 14.06 1:13:42 132 05:14 11.45 ir
23/06/17 pēdējais pirms jāņiem. Arnis 5.44 30:41 153 05:38 10.64
23/06/17 Īsākā nakts Bıķerniekos. Lasma3 16.00 1:50:00 148 06:52 8.73 ir
23/06/17 Running Aivysuperman 10.20 1:00:55 115 05:58 10.05 ir
23/06/17 Rīts OreMan 22.00 1:52:31 05:06 11.73 ir
23/06/17 30 dienās-503km :-),daudz.Rīga-Liepāja šoseja gandrīz līdz Mežavējam,Lutriņi,Druva. Gīča 26.20 2:15:55 135 05:11 11.57
23/06/17 Skrējiens buraam 6.47 43:40 06:44 8.89 ir
23/06/17 Skrējiens. garaissss 10.45 59:12 142 05:39 10.59 ir
23/06/17 No saulrieta līdz saullēktam Biķerniekos voļda 65.53 5:45:52 05:16 11.37 ir
23/06/17 Gāju "vakarā" uz māju un tad uzskrēju pēdējos ap 2 km. Lielkuilis 1.95 13:26 06:53 8.71 ir
23/06/17 Saules godināšanas aplis Lielkuilis 2.21 ir
23/06/17 Goda aplis jeb Skrējiens pretī saulei Viktoriinii 2.25 13:51 06:09 9.75 ir
23/06/17 īsā nakts jānis59 22.60 4:05:45 135 10:52 5.52 ir
23/06/17 No saulrieta līdz saullēktam guncha 50.01 4:45:20 05:42 10.52 ir
23/06/17 Alle hop Īsa nakts, gara zāle Arle 30.38 4:05:00 146 08:03 7.44 ir
23/06/17 Parasts Skrējiens Inga_K 10.18 57:17 142 05:37 10.66 ir
22/06/17 rīts AndrisJ 4.07 23:31 05:46 10.38 ir
22/06/17 Sporta patriots Līgo skrējiens Aruurs 24.00 2:06:34 05:16 11.38 ir
22/06/17 Īsākās nakts skrējiens Biķerniekos Freya 8.86 54:13 06:07 9.81 ir
22/06/17 Īsākās nakts skrējiens Beris 32.02 3:59:16 140 07:28 8.03 ir
22/06/17 Berlīnes rīts stjopachio 5.08 25:13 129 04:57 12.09 ir
22/06/17 Īsākās nakts skrējiens sigita 38.38 3:54:10 131 06:06 9.83 ir
22/06/17 Pretkalns  Inga_K 10.56 1:05:02 142 06:09 9.74 ir
22/06/17 Gada īsākā nakts Cassandra 30.10 2:49:04 156 05:37 10.68 ir
22/06/17 Maza izkustēšanās Cassandra 2.45 14:36 05:57 10.07 ir
22/06/17 Kuzminki runnerchick 15.00 1:22:24 124 05:29 10.92 ir
22/06/17 Skrējiens jaudzin 15.91 1:27:18 05:29 10.93
22/06/17 Skrējiens Kaspars33 2.20 07:49 03:33 16.89
22/06/17 Skrējiens ramiism 18.36 1:51:03 06:02 9.92
22/06/17 Skrējiens a2kat 6.17 1:06:05 10:42 5.60
22/06/17 Skrējiens didzzzons 9.25 38:07 04:07 14.56
22/06/17 Katlakalns - Rāmava savanna 10.51 51:53 04:56 12.15 ir
22/06/17 paskrien 0:40 h GintsB 7.66 40:01 128 05:13 11.49 ir
22/06/17 Iesild./atsild. DK86 3.00 16:55 05:38 10.64
22/06/17 8x1km tempā 4’10″/km ar atpūtas pauzēm pa 1’30”. DK86 10.01 45:21 165 04:31 13.24
22/06/17 orientēšanās - skuķīši gatca 10.11 1:11:19 07:03 8.51 ir
22/06/17 IzRīgu 3. Ugis 9.30 43:59 166 04:43 12.69 ir
22/06/17 Izskrien Rīgu! Arkādijas parka posms. Hiēna 5.00 31:36 06:19 9.49 ir
22/06/17 Atsildīšanās topinjs 3.04 18:20 06:01 9.95 ir
22/06/17 Izskrien Rīgu – 3.posms – Arkādijas parks  topinjs 10.00 34:58 03:29 17.16 ir
22/06/17 Iesildīšanās topinjs 3.05 17:21 05:41 10.55 ir
22/06/17 Pa rajonu DLK 3.59 21:47 06:04 9.89 ir
22/06/17 Saldus aicis 4.30 23:21 05:25 11.05 ir
22/06/17 Īsākās nakts skrējiens kopā ar Haraldu Kods 22.60 2:37:01 06:56 8.64 ir
22/06/17 j3 anikka 6.94 41:46 06:01 9.97 ir
22/06/17 70' Pulsa + 5 x 100 rubernmardom 13.15 1:11:36 129 05:26 11.02 ir
22/06/17 iesildīšanās Voldžiks 2.20 12:00 05:27 11.00 ir
22/06/17 Izskrien Rīgu 3.daļa Voldžiks 10.00 37:18 184 03:43 16.09 ir
22/06/17 Īsākās nakts skrējiens RimantsL 20.52 2:04:10 06:03 9.92 ir
22/06/17 #41 uz 5km chechens 3.68 26:33 153 07:12 8.32
22/06/17 75 - 4. BBPU koptreniņš zusurs 8.01 43:57 05:29 10.94 ir
22/06/17 Ekkeberga pret kalniņu Ewiaa 8.12 49:13 06:03 9.90 ir
22/06/17 Skrējiens noskrēju! 2.11 07:09 03:23 17.71 ir
22/06/17 Skrējiens NITRO 22.61 2:20:55 06:13 9.63 ir
22/06/17 Skrējiens bro 47.00 6:10:16 07:52 7.62 ir
22/06/17 Tr.. peciņa 2.16 13:24 06:12 9.67 ir
22/06/17 Skrējiens Miezers 12.03 1:09:07 05:44 10.44 ir
22/06/17 Skrējiens forshais1 7.90 40:44 05:09 11.64 ir
22/06/17 Skrējiens forshais1 18.21 1:43:23 05:40 10.57 ir
22/06/17 Skrējiens mozgovoj ribak 39.60 3:49:49 05:48 10.34 ir
22/06/17 Skrējiens Ainīc 52.70 6:16:47 07:08 8.39 ir
22/06/17 Vakara Rozamunde 10.00 1:02:05 144 06:12 9.66 ir
22/06/17 5. Īsākās nakts skrējiens MartinsF 24.77 2:42:56 06:34 9.12 ir
22/06/17 5. Īsākas nakts skrējiens "No saulrieta līdz saulēktam" Lielkuilis 53.31 4:51:02 05:27 10.99 ir
22/06/17 4. BBPU koptreniņš Lielkuilis 8.01 42:19 05:16 11.36 ir
22/06/17 uz BBPUK Lielkuilis 2.17 10:49 04:59 12.04 ir
22/06/17 Īsākās Nakts skrējiens Viktoriinii 55.45 4:49:51 05:13 11.48 ir
22/06/17 No saulrieta līdz miega stundai skai-tlot-ajs 36.03 3:11:46 05:19 11.27 ir
22/06/17 run JānisV 11.11 51:54 143 04:40 12.84 ir
22/06/17 Īsākās nakts skrējiens Zanda19 20.13 2:05:50 06:15 9.60 ir
22/06/17 Skrējiens Casperr 0.85 05:29 06:27 9.30 ir
22/06/17 Skrējiens Casperr 9.78 37:21 03:49 15.71 ir
22/06/17 Š-mežs, B-trase Rasels 28.60 2:40:50 125 05:37 10.67
22/06/17 Skrējiens ezisskrien 10.23 51:38 05:02 11.89 ir
22/06/17 5. Īsākās nakts skrējiens 30.00 2:22:30 04:45 12.63 ir
22/06/17 Skrējiens Miksons 22.74 1:49:17 04:48 12.48 ir
22/06/17 Īsākās nakts skrējiens, koptreniņš alx 22.60 1:41:02 04:28 13.42 ir
22/06/17 Izskrien Rīgu 3. posms alx 10.00 39:52 164 03:59 15.05 ir
22/06/17 Īsā nakts ilZZuks 15.80 1:27:00 05:30 10.90 ir
22/06/17 Izskrien Rīgu Arkādijas parkā, 4.vieta kopvērtējumā James87 9.91 35:08 03:32 16.92 ir
22/06/17 Iesildīšanās/atsildīšanās Arkādijas parkā James87 6.00 33:41 05:36 10.69 ir
22/06/17 vakara treniņš mihails.basmanovs 5.51 31:42 05:45 10.43
22/06/17 Tukums-Ķestrciems sergejs1 23.03 2:20:11 151 06:05 9.86 ir
22/06/17 Skrējiens missBraun 8.20 44:00 05:21 11.18 ir
22/06/17 Skrējiens Baibamk 8.03 54:59 06:50 8.76
22/06/17 Skrējiens Tima 5.15 29:36 05:44 10.44 ir
22/06/17 Skrējiens Piiraadzinjsh 5.66 33:20 05:53 10.19
22/06/17 Skrējiens Piiraadzinjsh 2.25 12:36 05:36 10.71
22/06/17 Skrējiens Razer 9.58 40:26 04:13 14.22
22/06/17 Skrējiens uzzy 0.43 07:49 18:10 3.30 ir
22/06/17 Skrējiens uzzy 0.96 05:26 05:39 10.60 ir
22/06/17 Skrējiens uzzy 10.01 42:51 04:16 14.02 ir
22/06/17 Skrējiens raraitis 18.01 1:28:48 04:55 12.17 ir
22/06/17 Skrējiens AlteR-EgO 8.15 39:15 04:48 12.46
22/06/17 Orientēšanās Miegs 8.40 56:27 06:43 8.93
22/06/17 Skrējiens anup 7.46 45:01 182 06:02 9.94 ir
22/06/17 Skrējiens triscilveks 8.56 50:34 05:54 10.16 ir
22/06/17 Skrējiens vaicis 13.53 1:33:16 06:53 8.70
22/06/17 Apkārt ezeram Nix65 19.25 1:39:04 119 05:08 11.66 ir
22/06/17 Skrējiens coffee 21.09 1:55:59 05:29 10.91 ir
22/06/17 Skrējiens ritar_r 10.22 1:10:13 06:52 8.73
22/06/17 Skrējiens des 4.29 24:18 05:39 10.59 ir
22/06/17 Orientēšanās kominieks 6.89 1:00:45 08:49 6.80 ir
22/06/17 Skrējiens Inga 6.40 46:34 07:16 8.25
22/06/17 #53 Īsākās nakts skrējiens Jekaterina 16.30 1:42:50 06:18 9.51 ir
22/06/17 Orientēšanās martinsoz 10.09 1:08:51 06:49 8.79 ir
22/06/17 Skrējiens IlzeG 4.82 33:42 06:59 8.58
22/06/17 Skrējiens Valdis.M 5.45 22:57 04:12 14.25 ir
22/06/17 Skrējiens viesisviesulis 4.01 26:56 06:42 8.93
22/06/17 Skrējiens Zigis 9.80 54:18 05:32 10.83
22/06/17 Skrējiens Zigis 1.51 09:22 06:12 9.67
22/06/17 Skrējiens Džanaka das 11.28 1:04:28 05:42 10.50 ir
22/06/17 Skrējiens mriden 10.02 1:06:40 06:39 9.02
22/06/17 Skrējiens guntars.bumans 10.01 59:07 05:54 10.16
22/06/17 Skrējiens Bubu 15.16 1:17:08 05:05 11.79 ir
22/06/17 Skrējiens Bubu 8.02 39:33 04:55 12.17 ir
22/06/17 Skrējiens incene 11.04 1:04:59 05:53 10.19 ir
22/06/17 Skrējiens andronkuls 7.00 53:00 07:34 7.92 ir
22/06/17 Skrējiens PaulEdgecomb 10.38 1:00:01 05:46 10.38
22/06/17 Skrējiens Bembelāts 11.74 1:05:04 05:32 10.83
22/06/17 Skrējiens xorix 4.00 20:28 05:07 11.73 ir
22/06/17 Skrējiens Kristaps_b 6.01 39:15 06:31 9.19 ir
22/06/17 Skrējiens migors 8.01 43:51 05:28 10.96
22/06/17 Vakara skrējiens riebīgais 11.14 1:01:42 05:32 10.83 ir
22/06/17 Skrējiens Martins.Krumins 6.54 31:58 04:53 12.28 ir
22/06/17 Tempa treniņš 4 km plus nedaudz stadiona trepites VilnisV 8.15 53:20 145 06:32 9.17 ir
22/06/17 Skrējiens AivisP 22.87 2:05:40 05:29 10.92 ir
22/06/17 Skrējiens Martinits1 5.05 23:41 04:41 12.79 ir
22/06/17 Skrējiens JanJ 11.06 56:44 05:07 11.70
22/06/17 Skrējiens AgrisN 10.37 1:00:00 05:47 10.37
22/06/17 krosiņš tomick 10.00 50:56 144 05:05 11.78 ir
22/06/17 No Liepājas uz Grobiņu shadowqueen 12.54 1:22:59 06:37 9.07 ir
22/06/17 Traki karsts ruu 3.50 21:40 06:11 9.69 ir
22/06/17 Pirmssvētku krosiņš ar tēti un suni pa Karostas meža takām KarlisBumans 10.00 59:10 140 05:55 10.14 ir
22/06/17 Skrējiens runner-arrnis 3.00 11:44 161 03:54 15.34
22/06/17 Pulsam par prieku ar Zani Renee 7.81 53:10 135 06:48 8.81 ir
22/06/17 Vējošanās ar spruudu un Sandiju uz ričuka edGars 19.00 1:47:44 135 05:40 10.58 ir
22/06/17 Izskrien Rīgu 3.posms - Arkādijas parks VējaMorts 10.00 51:48 167 05:10 11.58 ir
22/06/17 Skrējiens mtiger 8.40 46:30 130 05:32 10.84 ir
22/06/17 Treniņš andis.deze 12.00 54:14 04:31 13.28 ir
22/06/17 12.90 km zvaigzne 12.90 1:12:00 05:34 10.75 ir
22/06/17 Warmup/Cooldown Arnis 2.04 11:04 147 05:25 11.06
22/06/17 98.Tradicionālais Līgo kopskrējiens Tukums - Ķesterciems ilvarito 22.71 2:00:41 05:18 11.29 ir
22/06/17 Mparx divemaster 15.01 1:32:22 142 06:09 9.75 ir
22/06/17 RR jdex 6.38 41:03 06:26 9.33 ir
22/06/17 no izskrien Rīgu,Arkādijas parks 3# Rozens 3.45 18:59 148 05:30 10.90
22/06/17 atgriežos treniņos? neirula 10.00 59:01 177 05:54 10.17 ir
22/06/17 AR ilZZuks 6.54 43:07 06:35 9.10 ir
22/06/17 Izskrien Rīgu,Arkādijas parks 3# Rozens 10.00 42:51 177 04:17 14.00
22/06/17 Jcjcjf kalvicc94 11.00 49:30 04:30 13.33 ir
22/06/17 Uz Arkādijas parku un atpakaļ Kiky 6.65 39:03 05:52 10.22 ir
22/06/17 Izskrien Rīgu – 3.posms – Arkādijas parks Kiky 9.62 45:15 04:42 12.76 ir
22/06/17 Noskrien Rīgu - Arkādijas parkā lvingr 5.00 25:00 175 05:00 12.00 ir
22/06/17 Gar ezeru un jūrmalu spruuds 25.00 2:22:44 143 05:42 10.51 ir
22/06/17 Ceturtdien Biruta 9.76 57:05 164 05:50 10.26 ir
22/06/17 #130.v JurBer 2.00 16:24 130 08:12 7.32 ir
22/06/17 Magnēts, Skuķīši, 21B Regulus 8.22 50:42 06:10 9.73 ir
22/06/17 Ceturtdienas stadiona treniņš noris 16.04 1:15:38 149 04:42 12.72 ir
22/06/17 Augsts pulss šovakar Ginchaa 8.82 1:04:40 137 07:19 8.18
22/06/17 Skrejiens VP13 10.27 48:33 04:43 12.69 ir
22/06/17 4pamatsk.-stacija-mājas. muskulītis 3.70 21:53 147 05:54 10.14 ir
22/06/17 Basām Jaunmārupē ar sievu einmed 8.25 1:09:48 105 08:27 7.09 ir
22/06/17 Pļavnieki eddyboyz 5.84 42:04 145 07:12 8.33 ir
22/06/17 BBPU 4. koptreniņš OreMan 8.00 41:58 05:14 11.44 ir
22/06/17 Adidas Runners Riga koptreniņš GačusSkrunda 7.90 40:38 05:08 11.67 ir
22/06/17 Izskrien Rīgu: Arkādijas parks Rupucis_ 9.45 44:38 04:43 12.70 ir
22/06/17 Iesildīšanās / Atsildīšanās Rupucis_ 6.66 38:30 05:46 10.38 ir
22/06/17 Vakara krizzak 8.00 39:07 04:53 12.27 ir
22/06/17 Treniņš-intervāli WhatsNew 11.03 58:44 134 05:19 11.27 ir
22/06/17 Magnēts- Spicieris kalnu_žubīte 6.36 1:01:35 172 09:40 6.20 ir
22/06/17 Skrējiens borga 13.05 1:11:00 149 05:26 11.03 ir
22/06/17 skrējiens AigarsOKZK 16.00 1:25:29 05:20 11.23 ir
22/06/17 Besis pēc darba superforšā mežā personaskods 12.25 1:24:42 144 06:54 8.68 ir
22/06/17 NRR 16 lerychv 24.04 2:04:42 05:11 11.57 ir
22/06/17 tempa skr Krustnagliņa 5.10 29:34 165 05:47 10.35 ir
22/06/17 Biale Blota Kuks 6.40 38:00 134 05:56 10.11 ir
22/06/17 samērā laba pašsajūta pēc atkārtojumiem Flrx 7.64 38:55 05:05 11.78
22/06/17 Mazais lēnais IlzeP 5.80 38:42 06:40 8.99 ir
22/06/17 Ieelpoju vēju... vargans 11.84 1:25:08 07:11 8.34 ir
22/06/17 Kaut kāds drusciņš Sauļuks 6.19 35:26 05:43 10.48 ir
22/06/17 Drusciņ paskrēju, lai aizmirstu darba nedēļu Jānis_v 4.60 25:15 125 05:29 10.93 ir
22/06/17 Skrējiens Zix 3.18 18:28 05:48 10.33 ir
22/06/17 Skrējiens lellde 8.01 37:15 04:39 12.90 ir
22/06/17 Treniņš Jan4uks 10.27 1:03:51 172 06:13 9.65
22/06/17 60 +4 arturs.locmelis 9.58 49:28 129 05:09 11.62 ir
22/06/17 Jddjjd kalvicc94 8.00 39:40 04:57 12.10 ir
22/06/17 augstākā vieta - 3 no visiem noskrieniešiem. Vairākie km 30 dienās - 491 :) Gīča 13.22 1:03:46 144 04:49 12.44
22/06/17 15M cumulus 24.58 2:00:00 148 04:52 12.29 ir
22/06/17 dienas pikols 5.40 33:00 06:06 9.82 ir
22/06/17 PirmsJāņu paskrējiens Ance K 10.09 1:07:05 140 06:38 9.02 ir
22/06/17 Ar Twin ratiem (kopā 40kg) nois 10.01 1:00:46 06:04 9.88 ir
22/06/17 12:05 Ogres Stadions(10x300m caur 100m+VFS vingrinājumi/+18) GačusSkrunda 9.00 41:24 04:36 13.04 ir
22/06/17 Rīta kalnu treniņš Biķernieku mežā OreMan 12.00 1:10:58 05:54 10.15 ir
22/06/17 Mazais aplītis Ģirtiņš 3.30 17:27 153 05:17 11.35 ir
22/06/17 Pirmssacensību shaloms Jay-P 3.01 18:00 122 05:58 10.03 ir
22/06/17 B76 - 2 - atv8 ush 10.26 50:15 125 04:53 12.25 ir
22/06/17 Veloceliņš JA 10.20 59:54 05:52 10.22
22/06/17 No treniņa vitaminka D 3.10 14:24 137 04:38 12.92 ir
22/06/17 Uz treniņu vitaminka D 4.42 20:20 145 04:36 13.04 ir
22/06/17 Treniņš p.sintija 11.17 56:51 05:05 11.79 ir
22/06/17 pa trasi andris13 8.14 38:40 04:45 12.63 ir
22/06/17 Mans aplis adjutants 10.33 1:00:00 130 05:48 10.33 ir
22/06/17 bij ok CheekyDevil 14.60 1:34:51 06:29 9.24 ir
22/06/17 Lenta Magnuss 4.00 25:29 143 06:22 9.42
22/06/17 Skrējiens Lauris 6.00 42:35 138 07:05 8.45 ir
22/06/17 Ar ratiem nois 10.01 55:45 05:34 10.77 ir
22/06/17 Skrējiens Chuncha 14.00 1:21:25 05:48 10.32 ir
22/06/17 Skrējiens. vitjka 11.34 58:50 05:11 11.56 ir
22/06/17 Skrējiens V.A. 7.00 52:21 07:28 8.02
22/06/17 B76 - atv7 ush 20.27 1:39:57 120 04:55 12.17 ir
22/06/17 Skrējiens Alvals 16.07 1:32:53 05:46 10.38 ir
22/06/17 Skrējiens Ievinja 10.07 1:10:17 06:58 8.60 ir
22/06/17 Skrējiens AlexeyDpils 7.35 40:41 05:32 10.84
22/06/17 Skrējiens Bembelāts 4.06 24:59 06:09 9.75
22/06/17 Vēss pirmssvētku rīts, +12C Andris__Z 4.86 34:35 07:06 8.43 ir
22/06/17 Skrējiens ROY 12.01 1:00:01 04:59 12.01
22/06/17 Skrējiens dzelksnite 5.93 38:33 06:30 9.23 ir
22/06/17 Labrīt, ceturtdienā! SelfijuPavēlniece 5.40 37:35 137 06:57 8.62 ir
22/06/17 Promenāde, pampaki, +16 kāpas seismologs 14.16 1:23:31 139 05:53 10.17 ir
22/06/17 Skrējiens Wictoria 16.23 1:24:12 05:11 11.57 ir
22/06/17 Skrējiens pēc rīta buraam 4.12 25:09 06:06 9.83 ir
22/06/17 no rīta 9*, Varoņu piemiņas diena JK 1.48 11:45 07:56 7.56 ir
22/06/17 vidējais Jurģis 10.01 53:30 141 05:20 11.23 ir
22/06/17 Skrējiens lellde 6.05 31:38 05:13 11.48 ir
22/06/17 ... in 14.00 1:07:51 04:50 12.38 ir
22/06/17 ... in 12.21 1:06:39 05:27 10.99 ir
22/06/17 Šorīt esmu ezīts miglā un slimība svīst ārā.Saslimušam grūti skriet:-(. Gīča 14.00 1:09:49 135 04:59 12.03
22/06/17 Skrējiens. garaissss 10.45 59:58 132 05:44 10.46 ir
22/06/17 RV65 ĪNS ONils 51.07 5:09:52 149 06:04 9.89 ir
22/06/17 Vakara skrējiens Edmunds 10.30 51:03 04:57 12.11 ir
21/06/17 8.83 und 8.83 51:00 05:46 10.39 ir
21/06/17 Fun DzeniferaZ 5.50 50:00 09:05 6.60 ir
21/06/17 Kuzminki 15x100/100@20 sec runnerchick 15.00 1:23:37 156 05:34 10.76 ir
21/06/17 Skrējiens Sikais77 7.21 39:46 05:30 10.88 ir
21/06/17 Liepāja vieglais Uldiss 5.00 ir
21/06/17 ... Duuu-da 13.00 1:28:09 06:46 8.85 ir
21/06/17 Zasulauks; fartleks topinjs 5.76 33:10 05:45 10.42 ir
21/06/17 No darba topinjs 3.57 19:51 05:33 10.79 ir
21/06/17 Pa mežu DLK 3.45 18:48 05:26 11.01 ir
21/06/17 Saldus aicis 10.00 48:51 04:53 12.28 ir
21/06/17 j2 anikka 6.15 39:20 06:23 9.38 ir
21/06/17 Skrējiens uzzy 0.67 03:40 05:28 10.96 ir
21/06/17 Fārtleks anup 7.51 43:36 165 05:48 10.33 ir
21/06/17 Orientēšanās maaris_m 9.17 1:15:46 08:15 7.26 ir
21/06/17 Skrējiens SandisC 1.39 08:54 06:24 9.37 ir
21/06/17 Skrējiens borga 11.12 1:01:00 149 05:29 10.94 ir
21/06/17 +/- 50m atkārtojumi x5 + 100m; ie + a Flrx 3.90 19:55 05:06 11.75
21/06/17 Uz Tērveti Kods 22.46 2:24:49 06:26 9.31 ir
21/06/17 (86.0) taciņas Kampars 7.10 33:58 04:47 12.54
21/06/17 21.06. thunder man 9.03 52:03 115 05:45 10.41 ir
21/06/17 46 kerija 8.02 43:05 05:22 11.17 ir
21/06/17 Ātrākais treniņskrējiens šosezon (-1sek nieka,bet tomēr uzlabots) James87 11.00 45:30 149 04:08 14.51 ir
21/06/17 Vasaras biatlons Tartū bunfunk 7.40
21/06/17 aer villijs78 5.05 30:01 135 05:56 10.09 ir
21/06/17 Run Jolis 21.74 1:53:07 05:12 11.53
21/06/17 #40 uz 5km (Cooper test) chechens 2.41 12:01 189 04:59 12.03
21/06/17 Skrējiens agnijs 1.63 12:34 07:42 7.78 ir
21/06/17 Skrējiens agnijs 1.60 10:19 06:26 9.31 ir
21/06/17 60' Pulsa rubernmardom 10.55 56:44 130 05:22 11.16 ir
21/06/17 Кросс zlojtrolj 9.00 52:00 05:46 10.38 ir
21/06/17 tempiņš 4,5km, pa mežu drafts 7.58 36:19 159 04:47 12.52 ir
21/06/17 Skrējiens Martins.Krumins 6.42 28:25 04:25 13.56 ir
21/06/17 Skrējiens Valdis.M 7.05 31:00 04:23 13.65 ir
21/06/17 21:00 , +17C kofeins 10.50 1:12:00 06:51 8.75
21/06/17 Trešdienas mierīgais noris 9.26 45:02 140 04:51 12.34 ir
21/06/17 Skrējiens AlteR-EgO 9.40 46:14 04:55 12.20
21/06/17 Skrējiens raraitis 16.22 1:22:36 05:05 11.78 ir
21/06/17 vēlais ap Jelgavu alx 16.00 1:10:11 04:23 13.68 ir
21/06/17 Skrējiens Laur26 18.20 1:49:49 06:02 9.94
21/06/17 Skrējiens Kristaps_b 5.95 43:51 07:22 8.14 ir
21/06/17 Skrējiens Zigis 12.22 1:00:01 04:54 12.22
21/06/17 Skrējiens sīdžejs 0.58 06:05 10:29 5.72
21/06/17 Skrējiens sīdžejs 10.07 1:04:38 06:25 9.35
21/06/17 Skrējiens inga.brusova 7.80 50:30 06:28 9.27 ir
21/06/17 Skrējiens a2kat 11.22 57:11 05:05 11.77
21/06/17 Skrējiens Janile 18.43 1:43:11 05:35 10.72
21/06/17 Skrējiens otto 14.27 1:05:03 04:33 13.16
21/06/17 Skrējiens CR7 8.41 40:37 04:49 12.42
21/06/17 Skrējiens zetto 7.29 36:55 05:03 11.85 ir
21/06/17 Skrējiens MaritaR. 10.26 1:10:16 06:50 8.76
21/06/17 Pārmainus tempa skrējiens tomick 14.00 1:11:06 143 05:04 11.81 ir
21/06/17 Skrējiens ezisskrien 15.00 1:25:54 05:43 10.48 ir
21/06/17 Pirms treniņa LindeM 4.63 24:23 151 05:15 11.39 ir
21/06/17 tr briediitc 10.52 1:14:20 137 07:03 8.49 ir
21/06/17 Vakara skrējiens riebīgais 3.76 21:45 05:47 10.37 ir
21/06/17 Skrējiens baibaka 0.99 44:20 44:46 1.34 ir
21/06/17 Skrējiens des 4.06 20:13 04:58 12.05 ir
21/06/17 Skrējiens AiZu 6.64 38:54 05:51 10.24 ir
21/06/17 Skrējiens andronkuls 6.01 31:05 05:10 11.60 ir
21/06/17 uz darbu Rasels 11.50 1:02:00 126 05:23 11.13 ir
21/06/17 Skrējiens burunduks 9.03 59:24 06:34 9.12 ir
21/06/17 Skrējiens vl80 10.03 55:09 141 05:29 10.91 ir
21/06/17 Skrējiens xorix 0.58 03:14 05:34 10.76 ir
21/06/17 Skrējiens xorix 7.60 44:15 05:49 10.31 ir
21/06/17 Skrējiens maleksejevs 42.72 2:38:44 03:42 16.15 ir
21/06/17 Skrējiens Valdis.M 5.50 22:42 04:07 14.54 ir
21/06/17 Skrējiens gudeens 1.87 08:15 04:24 13.60
21/06/17 Skrējiens VējaMorts 10.00 59:50 150 05:59 10.03 ir
21/06/17 Skrējiens Didzis Tolmanis 5.10 24:56 04:53 12.27 ir
21/06/17 Skrējiens RaitisR 14.21 1:24:49 05:58 10.05 ir
21/06/17 Skrējiens Elhana 5.18 38:50 07:29 8.00 ir
21/06/17 Skrējiens eurosaj 5.70 34:08 05:59 10.02 ir
21/06/17 Skrējiens chunka 8.12 44:32 143 05:29 10.94 ir
21/06/17 Skrējiens triscilveks 7.80 45:16 05:48 10.34 ir
21/06/17 Skrējiens guntars.bumans 10.03 58:18 05:48 10.32
21/06/17 Orientēšanās Miegs 8.36 1:03:31 07:35 7.90
21/06/17 Skrējiens RaivisR 4.26 20:42 04:51 12.35 ir
21/06/17 Skrējiens RaivisR 10.17 51:45 05:05 11.79 ir
21/06/17 Skrējiens Džanaka das 5.22 34:38 06:38 9.04 ir
21/06/17 Skrējiens Piiraadzinjsh 11.61 1:07:41 05:49 10.29
21/06/17 Skrējiens ricardsbalcis 5.00 31:44 06:20 9.45 ir
21/06/17 Skrējiens kasiic 10.01 1:17:44 07:45 7.73 ir
21/06/17 Skrējiens Bembelāts 5.08 28:32 05:37 10.68
21/06/17 Vakara skrējiens ar tēti un suni KarlisBumans 10.00 58:40 136 05:52 10.23 ir
21/06/17 Skrējiens ramiism 14.05 1:16:52 05:28 10.97
21/06/17 Skrējiens Stalte 10.09 1:00:03 05:57 10.08 ir
21/06/17 Skrējiens heely 7.24 1:05:38 09:03 6.62 ir
21/06/17 Skrējiens Baibamk 6.05 43:35 07:12 8.33
21/06/17 Skrējiens Kļavu Pēteris 11.25 1:00:35 05:23 11.14 ir
21/06/17 Skrējiens Anncce 10.09 1:05:27 06:29 9.25
21/06/17 Skrējiens noskrēju! 10.76 44:01 04:05 14.67 ir
21/06/17 Skrējiens didzzzons 9.15 40:04 04:22 13.70
21/06/17 Skrējiens daskilla 12.32 1:11:07 05:46 10.39 ir
21/06/17 paskrienam pēc darba- noturam tempu mimite 7.20 34:32 153 04:47 12.51 ir
21/06/17 Skrējiens I_V 8.21 41:11 05:00 11.96 ir
21/06/17 Skrējiens archs 21.10 2:03:28 05:51 10.25
21/06/17 jauno apavu tests AigarsOKZK 11.03 55:04 04:59 12.02 ir
21/06/17 Vakara krizzak 14.00 1:07:33 04:49 12.44 ir
21/06/17 8km Z2 Māris91 8.04 44:15 135 05:30 10.90 ir
21/06/17 Skrējiens Kru 9.34 45:02 04:49 12.44 ir
21/06/17 S23 jdex 10.68 1:08:45 06:26 9.32 ir
21/06/17 sk ar T un meit ario 8.50 45:15 05:19 11.27 ir
21/06/17 Orientieris Meldru sils flower 5.40 50:43 145 09:23 6.39 ir
21/06/17 Vakara skrējiens RobertsR 12.38 54:19 151 04:23 13.68 ir
21/06/17 Vakara +15 ZR 5 ar saulīti Aldis B 5.70 35:31 149 06:14 9.62 ir
21/06/17 Galvas izvēdināšana Cassandra 10.50 1:05:25 06:13 9.63 ir
21/06/17 Magnēts, Kalniņi, 21B Regulus 7.65 52:19 06:50 8.77 ir
21/06/17 Treniņš Misters 12.20 1:14:45 06:07 9.79 ir
21/06/17 Pazudusī vakardiena gar sliedēm Ina 8.08 1:03:00 144 07:47 7.70 ir
21/06/17 #48 (lenais Z vējā) Pēča 6.04 35:57 139 05:57 10.08 ir
21/06/17 Lēnais pa trasi.Kadaga ozzy 9.01 57:41 140 06:24 9.37 ir
21/06/17 Skrējiens WhatsNew 10.04 54:01 125 05:22 11.15 ir
21/06/17 run JānisV 5.05 26:36 124 05:16 11.39 ir
21/06/17 3diena Gatis.K 10.11 52:41 140 05:12 11.51 ir
21/06/17 Lēnām, 3 x 500m 4:25 tempā. Uldzha 5.56 36:42 06:36 9.09 ir
21/06/17 Intervāli Alarion 4.65 40:08 139 08:37 6.95 ir
21/06/17 20:43 Sarkandaugava-Mežaparks(+13 un stiprs vējš) GačusSkrunda 13.05 1:04:04 04:54 12.22 ir
21/06/17 Treniņš izbadējies 10.02 44:30 154 04:26 13.51 ir
21/06/17 OS - Siguldas takas 331hm EdgarsBR 7.38 59:46 08:05 7.41
21/06/17 98 Guntis.Balodis 10.39 1:06:00 06:21 9.45
21/06/17 Dikti vējains vakars. Jānis_v 8.60 45:01 132 05:14 11.46 ir
21/06/17 Brīvskrējiens seismologs 7.25 39:48 123 05:29 10.93 ir
21/06/17 Divplākšņu koptreniņš lielaa saule 11.50 1:54:00 09:54 6.05
21/06/17 Skrejiens VP13 10.32 53:36 05:11 11.55 ir
21/06/17 56. Vīlīte 9.24 1:00:27 150 06:32 9.17 ir
21/06/17 Fiksais Bils: Juglas sāga Jay-P 7.16 38:00 135 05:18 11.31 ir
21/06/17 Valmieras Vieglatlētikas kluba 16.Skriešanas seriāls/Daliņa stad,15.kārta rotācijukaraliene 5.00 24:12 04:50 12.40 ir
21/06/17 Jauks intervāls ar latvju mūziku ausīs ai-jucis 7.00 46:41 145 06:40 9.00 ir
21/06/17 Valmieras Vieglatlētikas kluba 16.Skriešanas seriāls/Daliņa stad,15.kārta laacis1981 5.00 19:40 03:56 15.25 ir
21/06/17 Jdjdjd kalvicc94 12.00 48:50 04:04 14.74 ir
21/06/17 LUT v1.11 (Lavaredo trases izpēte) Džokers 15.17 1:43:17 06:48 8.81 ir
21/06/17 stadions lynx21 8.00 48:56 06:07 9.81
21/06/17 LUT v1.10 (San Vito di Cadore) Džokers 6.00 27:43 04:37 12.99 ir
21/06/17 Ķemeru ceļš (intervāli) Krustnagliņa 11.14 1:06:41 161 05:59 10.02 ir
21/06/17 Ap Niedrāju Raitis58 10.84 1:09:59 06:27 9.29 ir
21/06/17 Atsildīšanās ar basām kājām. kalnu_žubīte 1.34 10:48 152 08:03 7.44 ir
21/06/17 VVK seriāls- 5000m kalnu_žubīte 5.00 27:29 183 05:29 10.92 ir
21/06/17 Iesildīšanās pirms VVK seriāla. kalnu_žubīte 1.14 07:58 153 06:59 8.59 ir
21/06/17 Grūtības sākumā, vieglums beigās Arnis 9.49 54:39 154 05:45 10.42
21/06/17 Magnets ildze 8.20 1:18:00 09:30 6.31 ir
21/06/17 Trešdienis ar iekļautu 20' drill sēriju _Edgars_ 11.00 1:04:00 05:49 10.31 ir
21/06/17 Divplākšņi ar stirnubuka un roganinga elementiem. Lasma3 13.04 1:38:00 07:30 7.98 ir
21/06/17 Skrējiens Gunjux 7.31 50:14 06:52 8.73 ir
21/06/17 Ozolnieku apļi IlzeP 7.50 46:05 06:08 9.76 ir
21/06/17 Asfalts Dzo 12.70 1:00:00 04:43 12.70 ir
21/06/17 Pret un pa vējam maruks 9.50 52:36 132 05:32 10.84
21/06/17 st. kveks 8.00
21/06/17 iesildīšanās Voldžiks 6.00 30:00 139 05:00 12.00 ir
21/06/17 Ozolnieku apļi + pelde Lielupē Diddi 7.36 46:47 06:21 9.44 ir
21/06/17 Vēljoprojām vējš Ginchaa 13.05 1:29:51 132 06:53 8.71
21/06/17 maratontempā otra puse pa Kirkham kalnaini Ugisdatavs 10.50 51:00 133 04:51 12.35 ir
21/06/17 #129. JurBer 10.08 1:15:23 131 07:28 8.02 ir
21/06/17 parciņš Rainers 5.03 31:54 06:20 9.46 ir
21/06/17 Skrējiens Stupinss 10.68 51:29 151 04:49 12.45 ir
21/06/17 Cortina d'Ampezzo tests 2 zirnis 2.37 22:46 09:36 6.25 ir
21/06/17 3. Westy 5.13 31:28 06:08 9.77 ir
21/06/17 Lēni, vējš 7-11 m/s, +16C sola.scriptura 6.12 50:31 142 08:15 7.27 ir
21/06/17 brīvdiena pikols 2.40 15:00 06:15 9.60 ir
21/06/17 Treniņš andis.deze 12.00 52:04 04:20 13.83 ir
21/06/17 71 Rodrigo 7.50 42:37 05:40 10.56
21/06/17 70 Rodrigo 7.50 43:49 05:50 10.27
21/06/17 paskrien 0:30 h pēc velo GintsB 6.25 30:02 138 04:48 12.49 ir
21/06/17 Skrējiens 13.00 57:44 04:26 13.51 ir
21/06/17 4 krusti un atsildīšanās Kalnu Dace 3.00 23:30 07:50 7.66 ir
21/06/17 M30 iesildīšanās Kalnu Dace 3.00 30:30 115 10:10 5.90 ir
21/06/17 96.5 Speķīša vēdināšana. Ønske 7.94 51:00 06:25 9.34 ir
21/06/17 13.1M cumulus 21.15 1:42:49 155 04:51 12.34 ir
21/06/17 Tempa treniņš runner-arrnis 6.00 22:59 161 03:49 15.66 ir
21/06/17 Mājas-Mols-Liepājas robeža gskunstins 13.40 1:10:10 05:14 11.46 ir
21/06/17 (ne)skrējiens :( guncha 8.90 43:53 04:55 12.17 ir
21/06/17 B75 - atv 6 ush 15.62 1:17:51 125 04:59 12.04 ir
21/06/17 W/up / 18x400/ C/down neomax 14.01 1:30:10 145 06:26 9.32 ir
21/06/17 tr/d munkirs 11.00 1:02:32 144 05:41 10.55 ir
21/06/17 Pa Vecdaugavu m.jordan 6.61 31:08 04:42 12.74 ir
21/06/17 Pa meža ceļu Pičuks Dz 3.00 18:51 06:17 9.55
21/06/17 Negaiss Charna 7.01 41:54 05:58 10.04 ir
21/06/17 skrējiens pa krusu Inta Amoliņa 14.03 1:33:12 159 06:38 9.03 ir
21/06/17 Tempa skrējiens Beris 7.02 51:24 139 07:19 8.19 ir
21/06/17 Rīta rosme VilnisV 4.95 33:03 130 06:40 8.99 ir
21/06/17 Beberbeķi einmed 16.14 1:45:06 124 06:30 9.21 ir
21/06/17 Pa Šmerļa kalniem un lejām_un lietus duša Dace_Sofija 7.30 48:00 06:34 9.13
21/06/17 Pa lietu Girts76 6.00 32:18 05:23 11.15 ir
21/06/17 RR Apaļais 5.08 26:32 05:13 11.49 ir
21/06/17 Dienas garais treniņš stadionā voļda 13.06 1:00:01 04:35 13.06 ir
21/06/17 Upe Aivars 7.89 52:44 06:41 8.98 ir
21/06/17 LSPA krātiņš. 4x975m ar 3min atpūtu: 3:05/3:06/3:09/3:10 ansiso 6.50 ir
21/06/17 Stadions Chuncha 10.00 54:05 05:24 11.09 ir
21/06/17 Skrējiens Guna 7.30 49:39 06:48 8.82 ir
21/06/17 Lēnais alex1255 10.31 1:11:34 125 06:56 8.64 ir
21/06/17 Skrējiens Solcite 8.12 52:11 06:25 9.34 ir
21/06/17 61-ais nonnis 6.34 32:52 05:11 11.57 ir
21/06/17 meow Kristiāns 8.04 40:52 05:04 11.80 ir
21/06/17 Mežaparka eddyboyz 10.71 53:17 178 04:58 12.06 ir
21/06/17 Tukums sergejs1 2.15 12:30 05:48 10.32 ir
21/06/17 Draugos ar pulsu EvijaK 7.11 51:24 07:13 8.30
21/06/17 Old Man's Morning kurgelis 3.70 20:50 05:37 10.66 ir
21/06/17 B75 - atv5 ush 25.06 2:04:00 138 04:56 12.13 ir
21/06/17 Skrējiens KarīnaK 9.76 1:00:49 06:13 9.63 ir
21/06/17 Skrējiens Ainīc 12.13 1:11:39 05:54 10.16 ir
21/06/17 Skrējiens V.A. 10.15 1:05:05 06:24 9.36
21/06/17 Skrējiens maziinais 4.22 22:06 05:14 11.46 ir
21/06/17 Skrējiens johaidi 7.88 41:15 05:14 11.46 ir
21/06/17 Skrējiens sominens 11.07 1:05:14 05:53 10.18 ir
21/06/17 uz darbu #84 Lielkuilis 11.52 59:59 05:12 11.52 ir
21/06/17 vējš no jūras aiaiaigar 14.01 1:09:07 04:56 12.16 ir
21/06/17 #52 Vai ir dzīve pēc kalnu maratona? Jekaterina 5.12 36:47 07:11 8.35 ir
21/06/17 Skrējiens MartinsOzolins 11.54 1:58:08 10:14 5.86 ir
21/06/17 Skrējiens Mairita 6.16 40:25 06:33 9.14
21/06/17 Rīts OreMan 12.00 1:00:23 05:01 11.92 ir
21/06/17 Skrējiens inga.brusova 7.20 46:33 06:27 9.28 ir
21/06/17 skrējiens Klinta 8.50 44:20 05:12 11.50
21/06/17 Skrējiens Ievinja 15.05 1:37:34 06:28 9.26 ir
21/06/17 Nevelk...bet rits labs,ne karsts,ne auksts.Kopvertējumā 4 vieta-juhū:-). Gīča 23.00 2:00:00 132 05:13 11.50
21/06/17 w-15-1 stjopachio 12.42 58:10 138 04:40 12.81 ir
21/06/17 Skrējiens frišais 7.70 42:57 05:34 10.76 ir
21/06/17 Skrējiens lellde 13.34 1:07:39 05:04 11.83 ir
21/06/17 Rīts ar Daci Renee 10.20 59:21 145 05:49 10.31 ir
21/06/17 Running Aivysuperman 5.00 31:34 06:18 9.50 ir
21/06/17 Beidzot saņēmos paskriet. Intervāli 5x600. +11, saulains un silts antra 9.56 1:00:05 162 06:17 9.55 ir
21/06/17 no rīta 10*, 1962.g.dzimis Viktors Cojs, mūziķis JK 1.60 11:50 07:23 8.11 ir
21/06/17 Skrējiens garaissss 10.45 59:10 142 05:39 10.60 ir
21/06/17 Iesildīšanās + pievilkšanās pie stieņa DK86 1.50 08:09 05:26 11.04
21/06/17 W9Q1 anciite 6.78 42:48 142 06:18 9.50 ir
21/06/17 Skrējiens Wictoria 14.34 1:14:54 05:13 11.49 ir
21/06/17 Rīts AndrisJ 6.47 35:40 05:30 10.88 ir
21/06/17 Rīta skrējiens (kompānija māsai) Krī 5.52 37:22 06:46 8.86 ir
21/06/17 86. Didzis 6.67 46:49 07:01 8.55 ir
21/06/17 Rīta 5 Aruurs 5.00 25:11 05:02 11.91 ir
21/06/17 Saulgriežu maģiskais saullēkta brīdis skai-tlot-ajs 11.38 1:01:33 05:24 11.09 ir
21/06/17 Rīts Mada 7.17 44:41 06:13 9.63 ir
20/06/17 Skrējiens MarijaV 14.00 1:20:00 05:42 10.50 ir
20/06/17 Fun DzeniferaZ 2.00 18:00 09:00 6.67 ir
20/06/17 Kuzminki runnerchick 16.00 1:31:43 124 05:43 10.47 ir
20/06/17 Riita rosme azhons 1.90 11:00 05:47 10.36 ir
20/06/17 Skrējiens Lubyz 14.06 1:25:55 06:06 9.82 ir
20/06/17 Skrējiens anikka 4.81 30:27 06:19 9.48 ir
20/06/17 Skrējiens anikka 5.95 34:33 05:48 10.33 ir
20/06/17 59 +5 arturs.locmelis 10.15 51:32 131 05:04 11.82 ir
20/06/17 (86.0) taciņas Kampars 5.70 30:25 05:20 11.24
20/06/17 20.06. thunder man 15.00 1:16:30 137 05:06 11.76 ir
20/06/17 Skrējiens + 5x100m + 6x200m( ap 34sek) James87 11.45 47:19 04:07 14.52 ir
20/06/17 Vasaras biatlons Tartū bunfunk 6.40
20/06/17 viegls skrējiens BGIRTS 3.78 20:00 134 05:17 11.34 ir
20/06/17 skriet lelde 6.00 ir
20/06/17 Orientēšanās Zigis 8.78 48:56 05:34 10.77
20/06/17 Skrējiens mozgovoj ribak 8.73 35:31 04:04 14.75 ir
20/06/17 LUT v1.09 (Rīts pirms Itālijas) Džokers 7.50 33:03 04:24 13.62 ir
20/06/17 st. kveks 10.00
20/06/17 vertikālais puskilometrs ar 4 kg mugursomu Ugisdatavs 2.00 24:00 12:00 5.00 ir
20/06/17 69 Rodrigo 7.50 40:13 05:21 11.19
20/06/17 shadowqueen 7.01 46:19 06:36 9.08 ir
20/06/17 Skrèjiene AgneseGin 9.45 59:20 143 06:16 9.56 ir
20/06/17 Laukos ildze 4.80 33:00 06:52 8.73 ir
20/06/17 Orientēšanās armands l 6.08 34:16 05:38 10.65
20/06/17 pa mežvaldi Kiverene 9.50
20/06/17 Piekāst tos akmeņus Ultralapsa 8.01 46:17 144 05:46 10.38 ir
20/06/17 Skrienu eddyboyz 4.70 34:06 144 07:15 8.27 ir
20/06/17 #1 Pēc plāna Zazuuu 6.00 41:03 139 06:50 8.77 ir
20/06/17 Run Kikii.ks 8.06 49:30 06:08 9.77 ir
20/06/17 100. koptreniņš trololo 9.40 1:03:55 128 06:47 8.82 ir
20/06/17 pulsa drafts 14.83 1:26:13 140 05:48 10.32 ir
20/06/17 Skrējiens Miezers 61.51 6:02:28 05:53 10.18 ir
20/06/17 Skrējiens Casperr 6.67 31:37 04:44 12.66 ir
20/06/17 47.F1 aivars33 8.00 45:40 05:42 10.51 ir
20/06/17 Gatavošanās sezonai Trakais 6.22 31:41 05:05 11.78 ir
20/06/17 Piečuks + VFS DK86 5.00 25:21 145 05:04 11.83
20/06/17 Iesildīšanās DK86 1.50 08:35 138 05:43 10.49
20/06/17 Dikti vējains Rozamunde 11.20 1:14:24 06:38 9.03 ir
20/06/17 pludmale un asfalts un kāpas teicamnieks 10.00 ir
20/06/17 Krosiņš tomick 11.75 1:00:11 144 05:07 11.71 ir
20/06/17 Rīts AndrisJ 3.05 18:41 06:07 9.79 ir
20/06/17 Skrējiens ezisskrien 12.00 1:02:14 05:11 11.57 ir
20/06/17 Skrējiens Dubultaģente 9.51 1:09:29 138 07:18 8.21 ir
20/06/17 Viegla izkustēšanās Cassandra 9.03 55:07 06:06 9.83 ir
20/06/17 AR ilZZuks 12.80 1:22:00 06:24 9.37 ir
20/06/17 Skrējiens Shembis 6.00 33:53 139 05:38 10.62 ir
20/06/17 #100 KT edGars 9.04 56:49 06:17 9.55 ir
20/06/17 Skrējiens I_V 11.46 59:23 05:10 11.58 ir
20/06/17 Skrējiens Valters 7.70 53:19 06:55 8.67 ir
20/06/17 Orientēšanās Miegs 7.63 48:00 06:17 9.54
20/06/17 Skrējiens pūcīte 1.52 09:26 06:12 9.67 ir
20/06/17 Skrējiens JanJ 11.58 56:33 04:53 12.29
20/06/17 Skrējiens Ita 9.38 1:03:09 06:43 8.91 ir
20/06/17 Nāc izvējoties Liepājā! (100. koptreniņš) spruuds 14.00 1:09:55 155 04:59 12.01 ir
20/06/17 Skrējiens AgrisN 8.61 50:01 05:48 10.33
20/06/17 Skrējiens Andriic 8.31 43:34 05:14 11.44
20/06/17 Skrējiens IlzeG 5.04 41:14 08:10 7.33
20/06/17 Skrējiens karlos 1.35 07:16 05:22 11.15 ir
20/06/17 Skrējiens laputis 2.78 15:27 05:33 10.80 ir
20/06/17 2000.-šā diena pēc kārtas eees 7.03 42:00 05:58 10.04 ir
20/06/17 Skrējiens Alvals 10.67 1:10:55 06:38 9.03 ir
20/06/17 Skrējiens gudeens 1.80 08:41 04:49 12.44
20/06/17 Skrējiens gudeens 0.32 13:00 40:37 1.48
20/06/17 Skrējiens kalvicc94 5.51 26:12 04:45 12.62 ir
20/06/17 Skrējiens VējaMorts 5.05 29:42 150 05:52 10.20 ir
20/06/17 Skrējiens experc 10.71 1:09:13 06:27 9.28 ir
20/06/17 Skrējiens rzentelis 2.77 15:05 05:26 11.02
20/06/17 Skrējiens bOskars 8.73 48:59 05:36 10.69 ir
20/06/17 Skrējiens uzzy 10.08 49:07 04:52 12.31 ir
20/06/17 Skrējiens Lapsene 5.01 24:33 04:54 12.24 ir
20/06/17 Skrējiens des 1.21 06:28 05:20 11.23 ir
20/06/17 Skrējiens Highlanders 5.03 28:39 05:41 10.53 ir
20/06/17 Skrējiens xorix 5.01 28:49 05:45 10.43 ir
20/06/17 Skrējiens agnijs 9.14 1:00:02 06:34 9.13 ir
20/06/17 "Nāc izvējoties Liepājā" jubilejas 100.koptreniņš :) KarlisBumans 7.80 48:24 142 06:12 9.67 ir
20/06/17 Skrējiens Razer 9.70 53:14 05:29 10.93
20/06/17 Skrējiens noskrēju! 10.58 55:29 05:14 11.44 ir
20/06/17 Skrējiens vaicis 13.56 1:34:32 06:58 8.61
20/06/17 Skrējiens Laur26 11.34 1:03:01 05:33 10.80
20/06/17 Skrējiens rmamedov 10.56 1:01:28 05:49 10.31
20/06/17 Skrējiens rmamedov 2.67 15:58 05:58 10.03
20/06/17 Skrējiens Bubu 11.02 52:57 04:48 12.49 ir
20/06/17 Skrējiens Bubu 4.07 21:32 05:17 11.34 ir
20/06/17 Vējains VR Inga_K 4.54 24:21 142 05:21 11.19 ir
20/06/17 Skrējiens Duuu-da 9.00 57:19 06:22 9.42 ir
20/06/17 Skrējiens AivisP 16.17 1:29:52 05:33 10.80 ir
20/06/17 Skrējiens AlteR-EgO 2.49 10:57 04:23 13.64
20/06/17 Skrējiens AlteR-EgO 3.05 13:34 04:26 13.49
20/06/17 Uz darbu darbā darīt darbu . Valdis.M 6.29 27:00 04:17 13.98 ir
20/06/17 Skrējiens a2kat 5.01 24:55 04:58 12.06
20/06/17 Skrējiens Lubyz 14.06 1:25:55 06:06 9.82 ir
20/06/17 Orientēšanās martinsoz 9.29 55:50 06:00 9.98 ir
20/06/17 Skrējiens Džanaka das 2.33 13:17 05:42 10.52 ir
20/06/17 Skrējiens SandisC 1.38 12:41 09:11 6.53 ir
20/06/17 Skrējiens PaulEdgecomb 11.02 1:00:46 05:30 10.88
20/06/17 Skrējiens raraitis 14.12 1:11:02 05:01 11.93 ir
20/06/17 Skrējiens migors 15.01 1:34:06 06:16 9.57
20/06/17 Skrējiens Martinits1 5.59 28:37 05:07 11.72 ir
20/06/17 Skrējiens piile 10.01 53:37 155 05:21 11.20 ir
20/06/17 Skrējiens aicis1 3.00 10:37 03:32 16.95 ir
20/06/17 ātri gan pagāja laiks Flrx 7.22 34:51 04:49 12.43 ir
20/06/17 Stadions aicis 4.00 20:50 05:12 11.52 ir
20/06/17 W7D44 oldys34 17.58 1:45:40 149 06:00 9.98
20/06/17 Pa meža ceļu Pičuks Dz 2.00 13:45 06:52 8.73
20/06/17 Skrējiens Otomere 12.71 1:07:18 05:17 11.33 ir
20/06/17 Biju četros novados Normunds7 31.00 2:40:11 05:10 11.61 ir
20/06/17 Treniņš izbadējies 13.01 1:03:35 150 04:53 12.28 ir
20/06/17 Skrējiens Evija Miglane 5.26 32:03 06:05 9.85 ir
20/06/17 Vakara krizzak 7.00 35:01 05:00 11.99 ir
20/06/17 Pa maršrutu Kiky 14.69 1:24:23 05:44 10.45 ir
20/06/17 Tram2Run Rupucis_ 14.92 1:23:14 05:34 10.76 ir
20/06/17 85. Didzis 6.54 43:02 06:34 9.12 ir
20/06/17 Vakara vējos ruu 3.50 20:47 05:56 10.10 ir
20/06/17 Atsildīšanās WhatsNew 1.86 13:02 116 07:00 8.56 ir
20/06/17 Magnēts 34.kārta - Dūņezers 8.dist. WhatsNew 9.48 1:00:48 154 06:24 9.36 ir
20/06/17 Iesildīšanās WhatsNew 2.03 12:21 120 06:05 9.86 ir
20/06/17 Orient Magnēts DLK 8.03 52:58 06:35 9.10 ir
20/06/17 skrējiens buzaa 7.03 33:20 04:44 12.65 ir
20/06/17 Stadiona koptreniņš Māris91 7.32 1:29:53 125 12:16 4.89 ir
20/06/17 Vējains besis pēc darba mežā personaskods 15.02 1:45:40 142 07:02 8.53 ir
20/06/17 97. ilvarito 10.05 49:58 04:58 12.07 ir
20/06/17 OK Arona Jāņukalns flower 7.16 1:13:40 135 10:17 5.83 ir
20/06/17 Uz darbu topinjs 3.53 20:14 05:43 10.47 ir
20/06/17 No darba topinjs 3.59 21:03 05:51 10.23 ir
20/06/17 intervāli 3x1500@4.00 R 6min. puuce 12.34 59:14 148 04:48 12.50 ir
20/06/17 Vakars uz veloceliņa biciic 20.06 1:43:31 05:09 11.63 ir
20/06/17 74 - #adidasrunners otrdiena. intervāli zusurs 7.01 42:12 06:01 9.97 ir
20/06/17 vakars 16* Ziepčiks Rozens 12.00 1:01:11 151 05:05 11.77
20/06/17 running engiS 5.89 45:43 07:45 7.73
20/06/17 Pūt, vējiņi, dzen etiopieti! Jay-P 7.24 39:00 137 05:23 11.14 ir
20/06/17 Skrejiens VP13 15.26 1:10:38 04:37 12.96 ir
20/06/17 Lenta Magnuss 4.00 27:28 139 06:52 8.74
20/06/17 Iesild, 5x (1kmT + 400mL), vējš 8-12 m/s, +18C sola.scriptura 10.30 1:19:30 149 07:43 7.77 ir
20/06/17 gājienskrējiens ar G Krustnagliņa 7.61 1:03:21 125 08:19 7.21 ir
20/06/17 stadions lynx21 8.00 48:42 06:05 9.86
20/06/17 Skrējiens lellde 12.40 1:01:35 04:57 12.08 ir
20/06/17 Oslo ar iesnām. Pirmais brauciens ar T-bāni Ewiaa 10.33 1:04:00 06:11 9.68 ir
20/06/17 atsildīšanās Kalnu Dace 1.00 10:00 10:00 6.00 ir
20/06/17 M30 iesildīšanās Kalnu Dace 3.00 32:10 115 10:43 5.60 ir
20/06/17 Mazais ar kaimiņieni ai-jucis 5.76 45:09 132 07:50 7.65 ir
20/06/17 treniņš Imants Liepins 4.00 20:00 145 05:00 12.00
20/06/17 Cooldown Arnis 1.64 09:11 149 05:35 10.72
20/06/17 Treniņš Liepājā 2 Uldiss 5.00 49:00 09:48 6.12
20/06/17 Basām Jaunmārupē ar sievu einmed 7.92 1:05:18 103 08:14 7.28 ir
20/06/17 vajag Ilze1409 9.70
20/06/17 run Argons 17.12 1:25:06 04:58 12.07 ir
20/06/17 Otrdienis _Edgars_ 17.60 1:19:26 04:30 13.29 ir
20/06/17 Skrējiens 14.00 1:05:45 04:41 12.78 ir
20/06/17 Vakars līdz Raudai un atpakaļ englishteacher 8.00 39:34 04:56 12.13 ir
20/06/17 Ziedoņdarzā Andrejs 11.20 52:51 04:43 12.72 ir
20/06/17 Pludmale un Kāpas jestrais 10.74 1:14:00 152 06:53 8.71 ir
20/06/17 Ciele Kuks 13.10 1:18:00 138 05:57 10.08 ir
20/06/17 run JānisV 6.06 29:12 131 04:49 12.45 ir
20/06/17 Pļavnieki-Teika jeerika 10.23 59:40 05:49 10.29 ir
20/06/17 jūrmalā vitaminka D 25.03 1:59:36 139 04:46 12.56 ir
20/06/17 ar mazu līkumu uz dārzu Dina 3.40 22:50 143 06:42 8.93 ir
20/06/17 Trakā vējā Ginchaa 11.04 1:16:54 132 06:57 8.61
20/06/17 Vakars ar Kasparu OreMan 4.00 22:14 05:33 10.79 ir
20/06/17 Trenazieris Westy 4.75 29:19 06:10 9.72
20/06/17 skrējiens Diddi 9.59 1:03:08 06:34 9.11 ir
20/06/17 uz mājām Lielkuilis 15.22 1:18:43 05:10 11.60 ir
20/06/17 Run Jolis 30.23 2:32:33 05:02 11.89
20/06/17 Puse pret vēju,otra puse pa vējam :-) Gīča 11.00 56:13 156 05:06 11.74
20/06/17 Skrējiens borga 10.86 1:00:10 149 05:32 10.83 ir
20/06/17 18:19 Skanstes iela-Grostonas iela(+20 un stiprs vējš) GačusSkrunda 7.05 33:45 04:47 12.53 ir
20/06/17 Skrējiens Kru 11.10 51:47 04:39 12.86 ir
20/06/17 st. kveks 8.00
20/06/17 Veloceliņš JA 14.87 1:32:53 06:14 9.61
20/06/17 Otrdienas fartleks noris 11.82 54:23 149 04:36 13.04 ir
20/06/17 vakara pikols 2.80 18:00 06:25 9.33 ir
20/06/17 Skrējiens Zix 4.24 23:35 05:33 10.79 ir
20/06/17 Treniņš andis.deze 8.00 36:57 04:37 12.99 ir
20/06/17 Recovery Stupinss 11.59 59:39 144 05:08 11.66 ir
20/06/17 FIZO kārtošana Hamburgietis 3.00 13:18 04:26 13.53 ir
20/06/17 Cortina d'Ampezzo 1.tests zirnis 22.10 4:32:05 12:18 4.87 ir
20/06/17 Imantas veloceliņš Hamburgietis 10.00 47:18 04:43 12.68 ir
20/06/17 30m(10/10/10) 135-170 + 30m(500/150- 500/160) neomax 11.15 1:00:53 153 05:27 10.99 ir
20/06/17 Skrējiens uz RC pēc krāsas sienai. Gīča 11.00 54:35 161 04:57 12.09
20/06/17 īsts skrējiens Ieva 0.95 05:56 06:14 9.61 ir
20/06/17 Mazais aplītis Ģirtiņš 3.30 17:52 147 05:24 11.08 ir
20/06/17 2diena ar Kristapu Gatis.K 10.10 56:12 139 05:33 10.78 ir
20/06/17 otardieniņš normundiņš 10.90 1:06:23 151 06:05 9.85 ir
20/06/17 Mezaparka mierigais piecinieks gasha 5.00 25:00 133 05:00 12.00
20/06/17 B74 - 2 - atv4 - pēc zobārsta ush 10.25 50:07 121 04:53 12.27 ir
20/06/17 Rīta skrējiens Andris__Z 4.39 31:45 07:13 8.30 ir
20/06/17 Skrējiens Lauris 7.57 52:37 137 06:57 8.63 ir
20/06/17 Mežezers, kalni, meži, takas nois 5.28 32:03 06:04 9.88 ir
20/06/17 Ātrumu treniņš ar mierīgu skrējienu pa vidu un lēnu atsildīšanos 15min. kalnu_žubīte 10.13 1:10:04 170 06:55 8.67 ir
20/06/17 9:48 Grīziņkalns(5x800m caur 200m+10x100m caur 100m+400x lecamaukla/+20) GačusSkrunda 13.30 1:03:07 04:44 12.64 ir
20/06/17 Skrējiens Chuncha 12.00 1:13:25 06:07 9.81 ir
20/06/17 Dienas skrējiens riebīgais 2.90 16:15 05:36 10.71 ir
20/06/17 rīta basais uz biroju stjopachio 5.30 25:19 128 04:46 12.56 ir
20/06/17 Rīta saulīte skai-tlot-ajs 6.56 38:03 05:48 10.34 ir
20/06/17 Rīta saule EvijaK 5.59 41:09 07:21 8.15
20/06/17 uz darbu #83, max pulss 234 uz 5 min/km, jostiņa gļučī Lielkuilis 11.50 58:46 05:06 11.74 ir
20/06/17 B74 - atv3 ush 20.21 1:40:50 121 04:59 12.03 ir
20/06/17 Skrējiens elapins 10.37 59:38 05:45 10.43 ir
20/06/17 no rīta 13*, 1574.g.dzimis Vilhelms Ketlers, Kurzemes hercogs JK 1.67 11:06 06:38 9.03 ir
20/06/17 Skrējiens johaidi 8.88 49:48 05:36 10.70 ir
20/06/17 Skrējiens druupijs 25.02 2:11:36 05:15 11.41 ir
20/06/17 Skrējiens frišais 9.50 52:40 05:32 10.82 ir
20/06/17 Skrējiens KarīnaK 8.30 52:35 06:20 9.47 ir
20/06/17 Pārmaiņas pēc asfalts seismologs 12.44 1:06:23 138 05:20 11.24 ir
20/06/17 Skrējiens Jaudinieks 10.23 1:00:00 05:51 10.23 ir
20/06/17 Skrējiens dzelksnite 5.71 37:47 06:37 9.07 ir
20/06/17 Skrējiens +16 C InTi68 7.11 42:00 05:54 10.16 ir
20/06/17 Skrējiens AlexeyDpils 6.03 35:38 05:54 10.15
20/06/17 Skrējiens ROY 12.01 59:14 04:55 12.17
20/06/17 uz darbu bro 20.03 1:46:25 159 05:18 11.29 ir
20/06/17 Skrējiens oskarsdamb 18.70 1:46:27 05:41 10.54 ir
20/06/17 Skrējiens V.A. 13.67 1:30:17 06:36 9.08
20/06/17 Skrējiens skristaps 10.18 1:23:27 08:11 7.32 ir
20/06/17 Skrējiens Bembelāts 4.00 23:05 05:46 10.40
20/06/17 Skrējiens Piiraadzinjsh 12.69 1:05:10 05:08 11.68
20/06/17 Skrējiens kalvis.upitis 8.02 39:37 04:56 12.15
20/06/17 Rīta skrējiens ( no vāveres par zaķi) Krī 10.13 1:00:58 06:01 9.97 ir
20/06/17 Rīta garais skrējiens Z.k.-Ikšķile-dambis-Pārogres tunelis-Jaunogre voļda 23.94 1:50:11 04:36 13.04 ir
20/06/17 #128. JurBer 11.21 1:26:06 131 07:40 7.81 ir
20/06/17 Running Aivysuperman 10.20 59:23 116 05:49 10.31 ir
20/06/17 Kāja stīva, kāja līka, skriet man negribās ne nīka. Ginc 10.50 1:11:49 06:50 8.77 ir
20/06/17 saule tomēr uzspīdēja aiaiaigar 18.02 1:25:43 04:45 12.61 ir
20/06/17 Skrējiens. vitjka 3.83 22:15 05:48 10.33 ir
20/06/17 NRR 15 lerychv 7.78 46:23 110 05:57 10.06 ir
20/06/17 ... in 7.52 40:18 05:21 11.20 ir
20/06/17 Ventspils piedzīvojuma parka pusmaratons ciks 21.10 1:58:19 05:36 10.70 ir
20/06/17 68 Rodrigo 7.50 42:52 05:42 10.50
20/06/17 Skrējiens. garaissss 10.42 59:22 05:41 10.53 ir
20/06/17 Rīta rosme biciic 4.83 28:25 05:53 10.20 ir
20/06/17 Rīta tempa skrējiens, 6 km @ 3:50 min/km, tad vēl 2 km ar Alīnu OreMan 14.00 1:06:01 04:42 12.72 ir
20/06/17 negaidīta tikšanās ar mežacūku ģimeni Sanča_Ro 10.20 1:15:55 07:26 8.06 ir
20/06/17 Skrējiens mtiger 6.25 36:50 128 05:53 10.18 ir
20/06/17 Rīta 5 Aruurs 5.00 25:19 05:03 11.85 ir
20/06/17 6M Fartlek cumulus 10.06 51:12 159 05:05 11.79 ir
19/06/17 9 und 8.98 47:58 05:20 11.23 ir
19/06/17 Fun DzeniferaZ 2.00 ir
19/06/17 Дьяково runnerchick 13.00 1:16:55 124 05:55 10.14 ir
19/06/17 s gatca 13.46 1:26:00 06:23 9.39 ir
19/06/17 Baldone aicis 10.00 50:58 05:05 11.77 ir
19/06/17 Skrējiens ritar_r 5.17 35:03 06:46 8.85
19/06/17 (86.0) pludmale Kampars 5.90 30:05 05:05 11.77
19/06/17 Rīgas ielās shumite 7.51 42:45 05:41 10.54
19/06/17 19.06.2017. gunitao 12.28 1:06:16 05:23 11.12
19/06/17 45 kerija 5.09 27:09 05:20 11.25 ir
19/06/17 Uzlabots rezultāts pulsā 140 par 51sek James87 11.00 50:25 140 04:35 13.09 ir
19/06/17 Skrējiens RaivisR 15.13 1:08:00 04:29 13.35 ir
19/06/17 Pa Bulduriem lielaa saule 11.00 2:00:45 10:58 5.47
19/06/17 1.uz trenažieri Westy 4.33 26:00 06:00 9.99 ir
19/06/17 Ķerot govis. rotācijukaraliene 2.03 11:26 05:37 10.65 ir
19/06/17 LUT v1.08 (Grīziņa kāpnes) Džokers 12.00 1:30:00 07:30 8.00 ir
19/06/17 Skrējiens anup 6.96 45:01 06:28 9.28 ir
19/06/17 pulsa drafts 3.27 20:36 137 06:17 9.52 ir
19/06/17 Supervaroņu trepes drafts 4.84 1:04:53 158 13:24 4.48 ir
19/06/17 pulsa drafts 8.01 45:47 138 05:42 10.50 ir
19/06/17 Кросс zlojtrolj 7.00 38:00 05:25 11.05 ir
19/06/17 Skrējiens Razer 8.08 50:45 06:16 9.55
19/06/17 Skrējiens Džanaka das 0.29 01:47 06:08 9.76 ir
19/06/17 Vakara krizzak 10.00 50:03 05:00 11.99 ir
19/06/17 Pa trasi sx i DLK 6.68 34:53 05:13 11.49 ir
19/06/17 Treniņš Liepājā Uldiss 5.00 50:00 10:00 6.00
19/06/17 Skrējiens pa pludmali jestrais 10.28 1:07:52 150 06:36 9.09 ir
19/06/17 Skrējiens Laaurappeeterzone 12.43 1:10:45 143 05:41 10.54 ir
19/06/17 Ar sieviņu... laacis1981 12.36 1:10:45 05:43 10.48 ir
19/06/17 Skrējiens Kru 8.55 40:00 04:40 12.83 ir
19/06/17 st. kveks 7.00
19/06/17 uz/no spēka trenniņa ozzy 2.50 16:10 138 06:28 9.28 ir
19/06/17 Uz/no Supervaroņiem Grīziņkalna trepēs Viktoriinii 5.95 30:05 05:03 11.87 ir
19/06/17 Pirmdienis Rainy777 3.00 ir
19/06/17 vakars Elsi 5.50
19/06/17 60' Pulsa + 5x100 rubernmardom 11.50 1:02:07 126 05:24 11.11 ir
19/06/17 piņķi-garāžas 9symphony 1.80 10:00 05:33 10.80
19/06/17 Skrējiens PaulEdgecomb 12.91 1:12:15 05:35 10.72
19/06/17 Skrējiens maaris_m 11.10 58:55 05:18 11.30 ir
19/06/17 Pirmdienis _Edgars_ 14.05 1:06:26 04:43 12.69 ir
19/06/17 Džokers moka Grīziņkalnā. SelfijuPavēlniece 6.38 1:17:31 171 12:08 4.94 ir
19/06/17 #39 uz 5km chechens 4.10 30:03 150 07:19 8.19
19/06/17 Skrējiens maziinais 10.25 57:57 05:39 10.61 ir
19/06/17 Skrējiens ŽagarsĢ 14.72 1:21:27 05:31 10.84 ir
19/06/17 Lidosta (DHL ) - t/c Damme - Imanta 4. Ar līkumiņu. Valdis.M 12.03 53:33 04:27 13.48 ir
19/06/17 Skrējiens Inis 16.18 1:36:37 05:58 10.05 ir
19/06/17 Skrējiens ezisskrien 7.25 40:48 05:37 10.66 ir
19/06/17 Kišmiš no skriešanas, vigrošanas un uz ezeru. Renee 5.15 59:58 130 11:38 5.15
19/06/17 Skrējiens pēc Ziedoņa buraam 5.55 31:43 05:42 10.50 ir
19/06/17 Vakara skrējiens riebīgais 3.30 19:15 05:50 10.29 ir
19/06/17 21:30 , +20C kofeins 8.00 48:00 06:00 10.00
19/06/17 Skrējiens Janile 8.16 45:07 05:31 10.85
19/06/17 Skrējiens otto 13.71 1:06:34 04:51 12.36
19/06/17 Skrējiens burunduks 9.02 57:40 06:23 9.38 ir
19/06/17 Skrējiens ricardsbalcis 6.47 45:01 06:57 8.62 ir
19/06/17 Skrējiens MartinsOzolins 10.29 2:02:42 11:55 5.03 ir
19/06/17 Skrējiens Bubu 12.05 1:04:54 05:23 11.14 ir
19/06/17 Skrējiens Bubu 3.06 17:23 05:40 10.56 ir
19/06/17 Skrējiens AlteR-EgO 4.13 30:32 07:23 8.12
19/06/17 Skrējiens ViniNoskrejaVienuVasaru 7.73 48:25 06:15 9.58 ir
19/06/17 Pirms treniņa LindeM 4.65 24:02 150 05:10 11.61 ir
19/06/17 Skrējiens Maiznieks 13.63 1:32:07 06:45 8.88
19/06/17 Skrējiens bOskars 9.46 54:25 05:45 10.43 ir
19/06/17 Skrējiens bOskars 2.32 15:21 06:36 9.07 ir
19/06/17 Skrējiens Mairita 11.96 1:16:48 06:25 9.34
19/06/17 Skrējiens xorix 5.14 21:59 04:16 14.03 ir
19/06/17 Takas ar Boru Inga_K 17.19 1:47:25 137 06:14 9.60 ir
19/06/17 Skrējiens uzzy 6.28 31:14 04:58 12.06 ir
19/06/17 Skrējiens Baibamk 3.20 23:09 07:14 8.29
19/06/17 Skrējiens inga.brusova 9.14 59:53 06:33 9.16 ir
19/06/17 Skrējiens vl80 6.77 38:21 140 05:39 10.59 ir
19/06/17 Skrējiens JanJ 7.02 36:30 05:11 11.54
19/06/17 Skrējiens KarīnaK 6.55 42:07 06:25 9.33 ir
19/06/17 Skrējiens KarīnaK 9.53 1:01:35 06:27 9.28 ir
19/06/17 Skrējiens AgrisN 6.44 40:00 06:12 9.66
19/06/17 Skrējiens MaritaR. 9.21 1:10:32 07:39 7.83
19/06/17 Skrējiens karlos 4.22 31:25 07:26 8.06 ir
19/06/17 Skrējiens laputis 4.33 24:41 05:42 10.53 ir
19/06/17 Skrējiens ramiism 4.96 28:26 05:43 10.47 ir
19/06/17 Skrējiens ramiism 5.14 43:07 08:23 7.15
19/06/17 Skrējiens ramiism 2.03 11:17 05:33 10.79
19/06/17 Skrējiens noskrēju! 10.87 51:27 04:43 12.68 ir
19/06/17 Skrējiens Solcite 11.29 1:09:13 06:07 9.79 ir
19/06/17 Skrējiens vaicis 6.53 44:06 06:45 8.88
19/06/17 Skrējiens gustavs720 6.05 41:20 06:49 8.78
19/06/17 Skrējiens migors 12.29 1:23:23 06:47 8.84
19/06/17 Skrējiens Ita 6.04 46:10 07:38 7.85 ir
19/06/17 No sportlab des 8.17 46:13 05:39 10.61 ir
19/06/17 Skrējiens mriden 9.13 54:56 06:01 9.97
19/06/17 Skrējiens sjordzis 9.01 52:12 05:47 10.36 ir
19/06/17 Skrējiens sjordzis 0.46 05:13 11:20 5.29 ir
19/06/17 uz/no supervaroņiem chunka 6.12 36:35 141 05:58 10.04 ir
19/06/17 Skrējiens ZZ88 11.70 1:04:18 05:29 10.92 ir
19/06/17 Skrējiens Arweed 6.67 41:08 06:10 9.73 ir
19/06/17 Skrējiens raraitis 10.03 55:35 05:32 10.83 ir
19/06/17 Valteri Nix65 14.42 1:12:39 121 05:02 11.91 ir
19/06/17 Skrējiens priedza 7.37 54:50 07:26 8.06
19/06/17 Skrējiens Martinits1 14.05 1:11:48 05:06 11.74 ir
19/06/17 Skrējiens Casperr 5.13 23:51 04:38 12.91 ir
19/06/17 Skrējiens prieditism 6.22 39:47 06:23 9.38
19/06/17 Gita atgriežas no Spānijas, Mošķis no Skrundas edGars 4.64 31:12 06:43 8.92 ir
19/06/17 Skrējiens sīdžejs 0.56 03:43 06:38 9.04
19/06/17 Skrējiens SandisC 1.43 11:37 08:07 7.39 ir
19/06/17 Skrējiens Miezers 12.12 1:07:50 05:35 10.72 ir
19/06/17 vakara paskrējiens Ivars 8.20 54:45 130 06:40 8.99 ir
19/06/17 Vakara skrējiens LaimaZ 11.44 1:13:37 06:26 9.32 ir
19/06/17 Recovery Cassandra 7.00 43:58 06:16 9.55 ir
19/06/17 Gatavošanās sezonai Trakais 6.31 37:30 05:56 10.10 ir
19/06/17 Pa veloceliņu spruuds 16.00 1:25:41 145 05:21 11.20
19/06/17 Vai esi jau uzvarēta un padosies? krauklis 10.32 1:13:54 07:09 8.38
19/06/17 7.50 km zvaigzne 7.50 41:49 05:34 10.76 ir
19/06/17 Zoo+ GU 11.96 1:04:00 05:21 11.21 ir
19/06/17 Tilti. biciic 7.68 46:21 06:02 9.94 ir
19/06/17 paskrien 0:40 h GintsB 7.21 40:03 135 05:33 10.80 ir
19/06/17 Meza aplis savanna 8.41 45:10 05:22 11.17 ir
19/06/17 GI 1km x5 @4:29 jdex 10.00 55:52 05:35 10.74 ir
19/06/17 Stadionā ar Raiti Normunds7 12.00 1:02:05 05:10 11.60 ir
19/06/17 Silts vakars Kleistu mežā Jānis_v 8.50 45:46 132 05:23 11.14 ir
19/06/17 No Gatis.K 5.30 30:38 142 05:46 10.38 ir
19/06/17 Supervaroņu Grīzinkalna kāpnes Gatis.K 4.87 ir
19/06/17 Uz Gatis.K 5.36 28:02 142 05:13 11.47 ir
19/06/17 Dārziņi Ina 10.10 1:19:22 140 07:51 7.64 ir
19/06/17 atslodzei pēc darba mimite 7.20 37:57 152 05:16 11.38 ir
19/06/17 vakara mierīgais no darba stjopachio 9.29 45:03 123 04:50 12.37 ir
19/06/17 ciemos vitaminka D 12.01 57:47 143 04:48 12.47 ir
19/06/17 Lēnām. Uldzha 5.06 36:09 07:08 8.40 ir
19/06/17 Skrejiens ar sieviņu DainisB 1.43 11:55 08:20 7.20 ir
19/06/17 tr/v munkirs 9.15 51:33 152 05:38 10.65 ir
19/06/17 #127. JurBer 6.74 50:17 128 07:27 8.04 ir
19/06/17 ZK kā parasti maruks 9.50 54:10 132 05:42 10.52
19/06/17 Supervaroņu treniņš Grīziņkalnā borga 8.88 1:29:30 156 10:04 5.95 ir
19/06/17 Vārmes akmens Marta_And 13.40 1:22:00 155 06:07 9.80 ir
19/06/17 Skrējiens 10.00 46:15 04:37 12.97 ir
19/06/17 atgūšanās no Jukolas neirula 4.50 36:32 136 08:07 7.39 ir
19/06/17 97 Guntis.Balodis 16.10 1:35:25 05:55 10.12
19/06/17 10-nieks ai-jucis 10.13 1:13:34 141 07:15 8.26 ir
19/06/17 Mežezers, kalni, meži, takas nois 8.01 50:03 06:14 9.60 ir
19/06/17 ar sāpošu galvu aiaiaigar 12.03 1:00:50 05:03 11.87 ir
19/06/17 Skrejiens + Grass VP13 5.34 27:57 05:14 11.46 ir
19/06/17 Gludais kāpu jūrmalnieks seismologs 9.39 52:46 132 05:37 10.68 ir
19/06/17 tilti (endurance) bredato 11.62 1:06:55 05:45 10.42 ir
19/06/17 Frī kartupeļi un citi našķi KRK 3.07 28:20 151 09:13 6.50 ir
19/06/17 Valkas koklētājs didzisc 6.50 43:45 140 06:43 8.91 ir
19/06/17 Kartupeļu pankūkas. Linda_p 3.01 28:21 152 09:25 6.37 ir
19/06/17 Ne šodien ivitis 5.30 31:48 06:00 10.00
19/06/17 Jasmīni smaržo Lote 5.61 32:59 05:52 10.21 ir
19/06/17 skrējiens Oldington 6.61 1:04:04 105 09:41 6.19
19/06/17 58 arturs.locmelis 10.17 55:53 132 05:29 10.92 ir
19/06/17 Skrējiens runner-arrnis 4.00 18:17 146 04:34 13.13 ir
19/06/17 lēnītis guncha 16.30 1:22:12 05:02 11.90 ir
19/06/17 Pa meža ceļu Pičuks Dz 2.00 13:07 06:33 9.15
19/06/17 mājas-pils-llu-soc.māja muskulītis 4.10 23:08 160 05:38 10.63 ir
19/06/17 Uz darbu topinjs 3.59 19:39 05:28 10.96 ir
19/06/17 Veloceliņš topinjs 13.38 1:16:38 05:43 10.48 ir
19/06/17 Tr2 Westy 1.00 06:00 06:00 10.00
19/06/17 Skrējiens MartaK 9.16 1:00:01 161 06:33 9.16
19/06/17 Lēni pa mežu. Drusku vairāk šoreiz labā pēda sāpēja... ansiso 8.00 ir
19/06/17 +21; nedaudz arī cepina Flrx 6.20 30:10 04:51 12.33 ir
19/06/17 23* Ziepniekkalns Rozens 12.00 1:04:07 150 05:20 11.23
19/06/17 Basais pa nedraudzīgākām virsmām IlzeP 3.80 25:06 06:36 9.08 ir
19/06/17 Skrējiens LPD 7.39 47:31 147 06:25 9.33 ir
19/06/17 st. kveks 8.00
19/06/17 Veloserviss aKasIr 5.04 28:52 05:43 10.48 ir
19/06/17 Atjaunojošais DK86 7.03 41:03 130 05:50 10.28
19/06/17 Skrējiens Chuncha 10.00 1:01:48 06:10 9.71 ir
19/06/17 Basām Jaunmārupē + kalniņi einmed 7.84 58:11 114 07:25 8.08 ir
19/06/17 Biale Blota Kuks 6.20 37:00 144 05:58 10.05 ir
19/06/17 Piektdienas mierīgais noris 8.60 43:11 144 05:01 11.95 ir
19/06/17 vakara pikols 10.10 1:01:00 06:02 9.93 ir
19/06/17 Skrējiens Shuma 15.40 1:30:57 142 05:54 10.16 ir
19/06/17 B73 - 2 - atv2 ush 7.60 37:25 127 04:55 12.19 ir
19/06/17 ikrīta SiTi 9.00 1:06:43 151 07:24 8.09 ir
19/06/17 Mezaparks baigi silts gasha 5.00 23:45 143 04:45 12.63
19/06/17 Patipināju Normunds7 11.13 1:00:00 05:23 11.13 ir
19/06/17 lēnu, pēc run+swim+velo kļučiks 4.04 29:10 07:13 8.31 ir
19/06/17 84. Didzis 13.06 1:35:09 07:17 8.24 ir
19/06/17 3M cumulus 5.24 25:05 156 04:47 12.53 ir
19/06/17 Trepju, ātruma un fiziski smagais treniņš. kalnu_žubīte 6.01 53:56 155 08:58 6.69 ir
19/06/17 11:34 Skanstes iela-Grostonas iela(+22) GačusSkrunda 7.10 36:21 05:07 11.72 ir
19/06/17 Nedaudz pa meža un trases pampakiem aijuciiic 7.30 48:39 157 06:39 9.00 ir
19/06/17 Blīdene-Saldus,17km cīnıņš ar vēju. Gīča 22.00 1:51:39 140 05:04 11.82
19/06/17 95.3 Skriešana šodien švaka. Ønske 7.97 50:00 06:16 9.56 ir
19/06/17 Rīta drosme. OP - 73 Jay-P 5.12 30:00 133 05:51 10.24 ir
19/06/17 Skrējiens Guna 7.36 49:23 147 06:42 8.94 ir
19/06/17 Īsais lēnais Alarion 2.94 30:09 123 10:15 5.85 ir
19/06/17 Karstā rītā uz darbu Spāre lido 8.00 51:20 154 06:25 9.35 ir
19/06/17 Bialystok, Poland eees 5.25 32:35 06:12 9.67 ir
19/06/17 Skrējiens Evija Miglane 8.36 57:01 136 06:49 8.80 ir
19/06/17 18.06. Sintija_J 5.00 37:49 07:33 7.93
19/06/17 Medium run ar 25 min 4. pulsa zonā Beris 9.07 1:08:38 139 07:34 7.93 ir
19/06/17 Skrējiens johaidi 10.83 1:00:29 05:35 10.74 ir
19/06/17 Skrējiens sominens 11.01 1:03:42 05:47 10.37 ir
19/06/17 Paskrējis cilvēks = priecīgs cilvēks. bantiite 13.36 1:18:02 05:50 10.27 ir
19/06/17 Skrējiens Piiraadzinjsh 7.65 43:29 05:41 10.56
19/06/17 B73 - atv1 ush 15.61 1:16:50 127 04:55 12.19 ir
19/06/17 Skrējiens Andis87 10.01 55:07 05:30 10.90 ir
19/06/17 Skrējiens Lauris 8.25 57:09 137 06:55 8.66 ir
19/06/17 Skrējiens kalvicc94 15.17 1:09:59 04:36 13.01 ir
19/06/17 no rīta 17*, 1925.g. pieņemts pašreizējais Igaunijas ģerbonis JK 1.62 14:00 08:38 6.94 ir
19/06/17 Skrējiens Bembelāts 9.06 53:54 05:56 10.09
19/06/17 Running Aivysuperman 10.10 58:35 120 05:48 10.34 ir
19/06/17 Rīta atpūta mežā OreMan 12.00 1:04:24 05:22 11.18 ir
19/06/17 60-tais nonnis 7.04 37:39 05:20 11.22 ir
19/06/17 pirmās meža zemenes Sanča_Ro 7.40 52:14 07:03 8.50 ir
19/06/17 Rīts AndrisJ 3.05 18:07 05:56 10.10 ir
19/06/17 ... in 4.21 26:04 06:11 9.69 ir
19/06/17 Treniņš Misters 4.00 25:00 06:15 9.60 ir
19/06/17 Skrējiens garaissss 10.45 58:28 141 05:35 10.72 ir